GEFSNGP_prec_meanprecacc_174.txt.gz
Total_Precipitation_Accumulation
0.24 0.22 0.27 0.34 0.37 0.45 0.58 0.77 0.99 0.89 0.68 0.57 0.56 0.52 0.54 0.60 0.52 0.45 0.41 0.39 0.37 0.33 0.34 0.36 0.38 0.47 0.53 0.67 0.82 0.95 0.99 0.94 0.87 0.81 0.71 0.64 0.58 0.51 0.52 0.48 0.48 0.54 0.70 0.88
0.10 0.12 0.17 0.29 0.42 0.55 0.61 0.68 0.70 0.62 0.58 0.44 0.39 0.35 0.36 0.41 0.40 0.38 0.33 0.28 0.25 0.24 0.22 0.25 0.30 0.37 0.37 0.49 0.64 0.76 0.81 0.82 0.83 0.79 0.63 0.55 0.49 0.42 0.40 0.41 0.43 0.45 0.53 0.70
0.10 0.10 0.19 0.41 0.54 0.60 0.59 0.55 0.47 0.43 0.39 0.28 0.25 0.19 0.19 0.24 0.28 0.31 0.29 0.24 0.21 0.20 0.21 0.24 0.30 0.32 0.33 0.42 0.54 0.58 0.62 0.66 0.68 0.64 0.51 0.45 0.36 0.32 0.35 0.36 0.39 0.41 0.47 0.59
0.16 0.15 0.37 0.62 0.52 0.46 0.49 0.39 0.24 0.21 0.22 0.20 0.16 0.12 0.10 0.11 0.13 0.14 0.17 0.17 0.21 0.19 0.17 0.20 0.25 0.30 0.38 0.41 0.42 0.43 0.47 0.50 0.50 0.49 0.44 0.37 0.30 0.29 0.31 0.34 0.38 0.39 0.43 0.49
0.27 0.28 0.45 0.57 0.38 0.35 0.40 0.36 0.18 0.13 0.12 0.10 0.08 0.07 0.05 0.05 0.06 0.07 0.06 0.07 0.10 0.10 0.10 0.11 0.11 0.12 0.15 0.17 0.20 0.24 0.32 0.38 0.42 0.42 0.38 0.33 0.28 0.35 0.41 0.41 0.40 0.38 0.39 0.41
0.35 0.41 0.54 0.40 0.16 0.16 0.28 0.42 0.16 0.08 0.06 0.05 0.05 0.06 0.04 0.04 0.06 0.05 0.03 0.03 0.04 0.06 0.05 0.05 0.04 0.04 0.04 0.06 0.10 0.13 0.20 0.26 0.32 0.35 0.37 0.40 0.48 0.56 0.56 0.53 0.47 0.42 0.39 0.38
0.42 0.61 0.61 0.36 0.14 0.16 0.30 0.43 0.22 0.08 0.04 0.03 0.03 0.02 0.02 0.04 0.05 0.03 0.02 0.01 0.02 0.04 0.04 0.04 0.03 0.02 0.01 0.02 0.02 0.03 0.05 0.10 0.20 0.33 0.39 0.47 0.58 0.60 0.59 0.53 0.45 0.40 0.38 0.36
0.53 0.70 0.78 0.39 0.20 0.23 0.22 0.14 0.11 0.05 0.03 0.02 0.02 0.02 0.02 0.03 0.03 0.02 0.02 0.02 0.02 0.03 0.03 0.04 0.04 0.03 0.02 0.02 0.02 0.02 0.04 0.08 0.14 0.22 0.31 0.45 0.53 0.52 0.50 0.49 0.46 0.43 0.43 0.40
0.53 0.58 0.49 0.29 0.19 0.14 0.10 0.09 0.04 0.02 0.01 0.01 0.01 0.02 0.03 0.04 0.03 0.02 0.02 0.03 0.03 0.04 0.04 0.04 0.03 0.05 0.04 0.04 0.04 0.03 0.02 0.04 0.07 0.12 0.23 0.38 0.41 0.41 0.43 0.46 0.45 0.43 0.42 0.40
0.21 0.16 0.15 0.12 0.09 0.05 0.04 0.04 0.01 0.01 0.01 0.01 0.01 0.02 0.02 0.02 0.03 0.03 0.03 0.02 0.02 0.02 0.03 0.03 0.02 0.03 0.05 0.05 0.05 0.04 0.02 0.02 0.02 0.04 0.06 0.12 0.16 0.21 0.27 0.32 0.33 0.33 0.35 0.39
0.21 0.11 0.06 0.05 0.04 0.03 0.02 0.02 0.01 0.00 0.01 0.01 0.01 0.02 0.02 0.01 0.01 0.02 0.03 0.03 0.02 0.01 0.01 0.01 0.01 0.01 0.02 0.03 0.04 0.05 0.04 0.02 0.02 0.04 0.05 0.05 0.07 0.11 0.14 0.16 0.20 0.25 0.31 0.35
0.20 0.13 0.07 0.04 0.03 0.02 0.02 0.01 0.01 0.01 0.00 0.00 0.01 0.01 0.02 0.01 0.01 0.01 0.02 0.03 0.02 0.02 0.01 0.01 0.01 0.01 0.01 0.01 0.01 0.03 0.05 0.04 0.02 0.02 0.03 0.03 0.05 0.06 0.07 0.08 0.10 0.12 0.16 0.19
0.09 0.08 0.06 0.06 0.05 0.03 0.02 0.01 0.01 0.01 0.00 0.00 0.00 0.01 0.02 0.01 0.01 0.01 0.01 0.01 0.02 0.02 0.02 0.02 0.02 0.01 0.01 0.01 0.01 0.02 0.04 0.05 0.03 0.02 0.03 0.03 0.05 0.07 0.07 0.05 0.03 0.04 0.06 0.09
0.04 0.06 0.06 0.05 0.03 0.02 0.01 0.01 0.01 0.01 0.00 0.00 0.00 0.00 0.01 0.01 0.01 0.01 0.01 0.01 0.02 0.02 0.02 0.02 0.01 0.01 0.00 0.01 0.01 0.01 0.02 0.03 0.04 0.07 0.08 0.05 0.06 0.10 0.13 0.14 0.11 0.05 0.03 0.05
0.03 0.04 0.05 0.04 0.01 0.01 0.00 0.00 0.01 0.01 0.01 0.00 0.00 0.00 0.00 0.00 0.01 0.01 0.01 0.01 0.01 0.01 0.02 0.02 0.01 0.01 0.01 0.01 0.01 0.01 0.01 0.02 0.05 0.09 0.08 0.09 0.12 0.14 0.13 0.14 0.13 0.08 0.05 0.03
0.03 0.02 0.03 0.02 0.01 0.00 0.01 0.01 0.01 0.01 0.01 0.01 0.01 0.01 0.00 0.00 0.00 0.00 0.00 0.01 0.00 0.01 0.02 0.02 0.02 0.01 0.01 0.01 0.01 0.01 0.01 0.01 0.02 0.05 0.06 0.08 0.09 0.10 0.10 0.09 0.08 0.07 0.06 0.05
0.02 0.01 0.01 0.01 0.01 0.01 0.01 0.01 0.01 0.01 0.01 0.01 0.01 0.01 0.00 0.00 0.00 0.00 0.00 0.00 0.00 0.00 0.01 0.02 0.03 0.03 0.02 0.01 0.01 0.01 0.01 0.01 0.02 0.03 0.04 0.05 0.04 0.05 0.06 0.06 0.06 0.04 0.03 0.03
0.02 0.01 0.01 0.01 0.01 0.01 0.01 0.01 0.01 0.01 0.01 0.01 0.01 0.01 0.01 0.01 0.01 0.01 0.01 0.00 0.00 0.00 0.00 0.01 0.02 0.03 0.03 0.02 0.01 0.01 0.02 0.02 0.03 0.04 0.06 0.06 0.04 0.05 0.05 0.06 0.06 0.06 0.05 0.04
0.03 0.02 0.02 0.02 0.01 0.01 0.01 0.01 0.01 0.01 0.01 0.01 0.01 0.01 0.01 0.02 0.02 0.01 0.01 0.01 0.01 0.01 0.01 0.01 0.01 0.02 0.02 0.02 0.02 0.02 0.03 0.03 0.03 0.05 0.06 0.05 0.06 0.07 0.07 0.07 0.07 0.07 0.08 0.09
0.04 0.04 0.03 0.03 0.03 0.02 0.02 0.02 0.02 0.01 0.01 0.01 0.02 0.02 0.02 0.02 0.01 0.01 0.01 0.02 0.02 0.02 0.01 0.01 0.01 0.01 0.02 0.03 0.05 0.04 0.04 0.05 0.05 0.07 0.07 0.08 0.08 0.08 0.08 0.07 0.07 0.09 0.10 0.12
0.06 0.06 0.05 0.05 0.04 0.04 0.04 0.03 0.03 0.03 0.03 0.02 0.03 0.03 0.02 0.01 0.01 0.01 0.01 0.02 0.02 0.02 0.02 0.03 0.03 0.04 0.04 0.05 0.07 0.06 0.05 0.06 0.06 0.07 0.08 0.10 0.11 0.11 0.12 0.11 0.11 0.12 0.13 0.14
0.08 0.08 0.07 0.06 0.06 0.06 0.06 0.05 0.05 0.05 0.04 0.04 0.04 0.04 0.03 0.03 0.02 0.02 0.03 0.03 0.04 0.05 0.05 0.05 0.05 0.06 0.07 0.08 0.07 0.07 0.08 0.08 0.08 0.09 0.10 0.11 0.13 0.15 0.17 0.16 0.15 0.15 0.15 0.17
0.08 0.08 0.08 0.07 0.06 0.06 0.06 0.07 0.07 0.07 0.07 0.06 0.06 0.06 0.06 0.06 0.06 0.07 0.08 0.07 0.07 0.08 0.09 0.09 0.09 0.10 0.11 0.09 0.08 0.08 0.09 0.11 0.12 0.13 0.15 0.15 0.15 0.17 0.20 0.20 0.20 0.19 0.19 0.20
0.09 0.08 0.07 0.07 0.06 0.07 0.08 0.09 0.09 0.09 0.09 0.09 0.09 0.09 0.09 0.09 0.10 0.11 0.11 0.12 0.12 0.11 0.10 0.10 0.11 0.11 0.12 0.09 0.11 0.12 0.13 0.13 0.15 0.17 0.20 0.22 0.21 0.21 0.22 0.23 0.24 0.24 0.24 0.25
0.11 0.09 0.08 0.08 0.08 0.10 0.12 0.11 0.10 0.09 0.08 0.08 0.07 0.08 0.08 0.09 0.10 0.12 0.12 0.13 0.14 0.14 0.12 0.13 0.14 0.15 0.13 0.13 0.15 0.17 0.18 0.18 0.19 0.21 0.21 0.24 0.25 0.26 0.26 0.26 0.27 0.28 0.29 0.29
0.08 0.06 0.06 0.06 0.07 0.07 0.08 0.07 0.08 0.09 0.08 0.07 0.07 0.08 0.09 0.09 0.10 0.12 0.13 0.13 0.14 0.15 0.14 0.12 0.12 0.12 0.12 0.14 0.16 0.18 0.19 0.20 0.20 0.20 0.22 0.25 0.26 0.27 0.30 0.32 0.32 0.32 0.33 0.33
0.07 0.06 0.05 0.05 0.04 0.05 0.06 0.06 0.07 0.09 0.11 0.12 0.13 0.14 0.13 0.14 0.14 0.14 0.13 0.12 0.13 0.14 0.15 0.15 0.15 0.14 0.15 0.16 0.17 0.18 0.19 0.20 0.20 0.22 0.24 0.26 0.29 0.31 0.32 0.33 0.34 0.36 0.38 0.39

GEFSNGP_prec_meanprecacc_180.txt.gz
Total_Precipitation_Accumulation
0.24 0.22 0.27 0.35 0.37 0.45 0.59 0.77 0.99 0.89 0.69 0.57 0.56 0.52 0.54 0.60 0.52 0.46 0.42 0.40 0.38 0.34 0.34 0.36 0.39 0.48 0.55 0.67 0.82 0.95 1.01 0.96 0.88 0.82 0.72 0.64 0.58 0.51 0.52 0.49 0.48 0.55 0.71 0.89
0.10 0.13 0.18 0.29 0.42 0.55 0.61 0.68 0.71 0.62 0.58 0.44 0.39 0.35 0.36 0.41 0.40 0.38 0.33 0.29 0.26 0.25 0.23 0.25 0.31 0.38 0.38 0.49 0.64 0.76 0.81 0.83 0.85 0.81 0.64 0.56 0.49 0.42 0.40 0.42 0.43 0.45 0.53 0.70
0.10 0.10 0.19 0.41 0.54 0.60 0.59 0.55 0.47 0.43 0.39 0.28 0.25 0.19 0.19 0.25 0.29 0.31 0.29 0.24 0.22 0.21 0.22 0.24 0.31 0.34 0.34 0.42 0.54 0.58 0.62 0.66 0.69 0.66 0.52 0.46 0.36 0.32 0.35 0.36 0.39 0.42 0.47 0.59
0.16 0.15 0.37 0.62 0.52 0.46 0.49 0.39 0.24 0.22 0.22 0.20 0.16 0.13 0.10 0.11 0.13 0.15 0.17 0.17 0.22 0.19 0.18 0.20 0.25 0.31 0.40 0.41 0.42 0.44 0.47 0.50 0.50 0.50 0.45 0.38 0.30 0.29 0.31 0.34 0.39 0.40 0.43 0.49
0.27 0.28 0.45 0.57 0.38 0.35 0.41 0.36 0.18 0.13 0.12 0.10 0.08 0.07 0.05 0.05 0.07 0.08 0.07 0.08 0.11 0.11 0.11 0.12 0.12 0.14 0.16 0.18 0.21 0.24 0.33 0.39 0.42 0.42 0.39 0.33 0.29 0.35 0.41 0.41 0.41 0.39 0.39 0.41
0.35 0.42 0.54 0.40 0.16 0.16 0.28 0.42 0.16 0.08 0.06 0.05 0.05 0.06 0.04 0.05 0.06 0.05 0.03 0.03 0.05 0.07 0.06 0.06 0.06 0.06 0.05 0.06 0.10 0.14 0.20 0.26 0.32 0.35 0.38 0.40 0.48 0.56 0.57 0.53 0.48 0.42 0.39 0.38
0.42 0.61 0.61 0.36 0.14 0.16 0.30 0.43 0.22 0.08 0.04 0.03 0.03 0.03 0.02 0.04 0.05 0.04 0.02 0.02 0.03 0.05 0.05 0.05 0.05 0.03 0.02 0.02 0.03 0.03 0.05 0.10 0.20 0.33 0.39 0.48 0.58 0.60 0.59 0.54 0.45 0.40 0.38 0.36
0.54 0.70 0.78 0.39 0.20 0.24 0.22 0.14 0.11 0.05 0.03 0.02 0.02 0.02 0.03 0.03 0.03 0.02 0.03 0.02 0.03 0.04 0.04 0.06 0.06 0.04 0.03 0.02 0.02 0.02 0.04 0.08 0.14 0.22 0.32 0.45 0.54 0.52 0.51 0.50 0.47 0.43 0.44 0.41
0.53 0.58 0.49 0.29 0.19 0.14 0.10 0.09 0.04 0.02 0.01 0.01 0.02 0.03 0.03 0.04 0.03 0.02 0.02 0.03 0.04 0.05 0.05 0.06 0.05 0.06 0.05 0.04 0.04 0.03 0.03 0.04 0.07 0.13 0.24 0.38 0.41 0.41 0.44 0.46 0.45 0.43 0.42 0.40
0.22 0.16 0.15 0.12 0.09 0.05 0.04 0.04 0.01 0.01 0.01 0.01 0.02 0.02 0.02 0.02 0.03 0.03 0.03 0.03 0.03 0.03 0.04 0.04 0.03 0.04 0.05 0.05 0.05 0.04 0.03 0.02 0.02 0.04 0.07 0.12 0.17 0.21 0.27 0.32 0.33 0.33 0.35 0.39
0.21 0.11 0.06 0.05 0.04 0.03 0.02 0.02 0.01 0.00 0.01 0.01 0.02 0.02 0.02 0.01 0.02 0.03 0.03 0.03 0.02 0.02 0.03 0.03 0.02 0.02 0.03 0.04 0.05 0.05 0.04 0.03 0.03 0.04 0.06 0.06 0.08 0.11 0.14 0.17 0.20 0.26 0.31 0.35
0.20 0.13 0.07 0.04 0.03 0.02 0.02 0.01 0.01 0.01 0.00 0.00 0.01 0.01 0.02 0.01 0.01 0.01 0.02 0.03 0.03 0.03 0.03 0.04 0.03 0.02 0.02 0.02 0.03 0.04 0.06 0.04 0.02 0.02 0.03 0.04 0.05 0.06 0.07 0.08 0.11 0.13 0.16 0.19
0.09 0.08 0.06 0.06 0.05 0.03 0.02 0.01 0.01 0.01 0.00 0.00 0.00 0.01 0.02 0.01 0.01 0.01 0.01 0.02 0.03 0.03 0.03 0.04 0.04 0.03 0.02 0.01 0.02 0.03 0.05 0.05 0.04 0.02 0.03 0.04 0.05 0.07 0.07 0.05 0.04 0.04 0.06 0.10
0.04 0.06 0.06 0.05 0.03 0.02 0.01 0.01 0.01 0.01 0.00 0.00 0.00 0.00 0.01 0.01 0.01 0.01 0.02 0.02 0.03 0.03 0.03 0.02 0.02 0.02 0.02 0.02 0.02 0.02 0.03 0.04 0.05 0.07 0.09 0.06 0.06 0.10 0.13 0.15 0.11 0.05 0.03 0.05
0.03 0.04 0.05 0.04 0.01 0.01 0.00 0.00 0.01 0.01 0.01 0.00 0.00 0.00 0.00 0.00 0.01 0.01 0.01 0.01 0.02 0.02 0.03 0.02 0.02 0.02 0.02 0.02 0.02 0.02 0.02 0.03 0.05 0.09 0.09 0.10 0.13 0.15 0.14 0.14 0.13 0.09 0.05 0.03
0.03 0.02 0.03 0.02 0.01 0.01 0.01 0.01 0.01 0.01 0.01 0.01 0.01 0.01 0.00 0.00 0.00 0.00 0.01 0.01 0.01 0.01 0.02 0.03 0.03 0.02 0.02 0.02 0.02 0.02 0.02 0.02 0.03 0.05 0.07 0.08 0.10 0.12 0.11 0.10 0.09 0.07 0.06 0.06
0.02 0.01 0.01 0.01 0.01 0.01 0.01 0.01 0.01 0.01 0.01 0.01 0.01 0.01 0.00 0.00 0.00 0.00 0.00 0.01 0.01 0.01 0.01 0.02 0.03 0.04 0.03 0.02 0.02 0.02 0.02 0.03 0.03 0.04 0.05 0.05 0.05 0.06 0.07 0.07 0.06 0.05 0.04 0.04
0.02 0.01 0.01 0.01 0.01 0.01 0.01 0.01 0.01 0.01 0.01 0.01 0.01 0.01 0.01 0.01 0.01 0.01 0.01 0.01 0.01 0.01 0.00 0.01 0.02 0.04 0.04 0.03 0.02 0.02 0.02 0.03 0.03 0.04 0.07 0.06 0.05 0.05 0.06 0.07 0.07 0.06 0.06 0.05
0.03 0.02 0.02 0.02 0.01 0.01 0.02 0.01 0.01 0.01 0.01 0.01 0.01 0.01 0.01 0.02 0.02 0.01 0.02 0.02 0.01 0.01 0.01 0.01 0.01 0.02 0.03 0.03 0.03 0.03 0.03 0.03 0.04 0.05 0.07 0.06 0.06 0.07 0.07 0.07 0.08 0.08 0.10 0.10
0.04 0.04 0.04 0.03 0.03 0.02 0.02 0.02 0.02 0.02 0.01 0.01 0.02 0.02 0.02 0.02 0.01 0.01 0.01 0.02 0.02 0.02 0.02 0.02 0.02 0.02 0.03 0.05 0.06 0.05 0.05 0.05 0.05 0.07 0.07 0.09 0.09 0.09 0.09 0.09 0.09 0.10 0.11 0.13
0.06 0.06 0.05 0.05 0.05 0.04 0.04 0.04 0.03 0.03 0.03 0.02 0.03 0.03 0.02 0.01 0.01 0.01 0.02 0.02 0.02 0.03 0.03 0.03 0.04 0.04 0.04 0.07 0.08 0.06 0.05 0.06 0.06 0.07 0.08 0.11 0.13 0.13 0.14 0.13 0.12 0.13 0.13 0.14
0.08 0.08 0.07 0.06 0.06 0.06 0.06 0.05 0.05 0.05 0.05 0.04 0.04 0.04 0.03 0.03 0.03 0.03 0.03 0.03 0.04 0.05 0.05 0.06 0.06 0.07 0.08 0.09 0.08 0.08 0.08 0.08 0.08 0.10 0.10 0.12 0.15 0.18 0.18 0.17 0.16 0.15 0.15 0.17
0.08 0.08 0.08 0.07 0.07 0.06 0.06 0.07 0.07 0.07 0.07 0.07 0.06 0.06 0.06 0.06 0.07 0.07 0.08 0.08 0.07 0.09 0.09 0.09 0.10 0.11 0.12 0.10 0.10 0.10 0.10 0.11 0.12 0.13 0.15 0.15 0.15 0.18 0.21 0.21 0.21 0.20 0.20 0.21
0.10 0.09 0.08 0.07 0.07 0.07 0.09 0.10 0.10 0.10 0.10 0.10 0.10 0.10 0.10 0.10 0.11 0.12 0.12 0.12 0.12 0.11 0.10 0.10 0.12 0.12 0.12 0.10 0.13 0.14 0.14 0.14 0.16 0.17 0.20 0.22 0.21 0.22 0.23 0.24 0.26 0.26 0.25 0.26
0.13 0.11 0.09 0.09 0.10 0.11 0.13 0.12 0.11 0.10 0.10 0.10 0.09 0.09 0.10 0.10 0.11 0.13 0.13 0.14 0.15 0.14 0.12 0.13 0.15 0.16 0.14 0.13 0.16 0.18 0.19 0.19 0.20 0.21 0.22 0.24 0.25 0.26 0.27 0.27 0.28 0.28 0.29 0.30
0.10 0.08 0.08 0.08 0.08 0.09 0.10 0.09 0.10 0.10 0.10 0.09 0.09 0.10 0.10 0.11 0.12 0.13 0.14 0.14 0.14 0.15 0.14 0.13 0.13 0.13 0.14 0.16 0.18 0.19 0.20 0.21 0.21 0.21 0.22 0.25 0.27 0.28 0.30 0.32 0.32 0.33 0.33 0.34
0.08 0.08 0.07 0.07 0.06 0.06 0.07 0.08 0.09 0.11 0.12 0.14 0.15 0.15 0.15 0.15 0.15 0.15 0.14 0.13 0.14 0.15 0.15 0.16 0.16 0.15 0.16 0.18 0.19 0.20 0.21 0.21 0.21 0.22 0.25 0.27 0.30 0.32 0.34 0.35 0.36 0.38 0.40 0.41

GEFSNGP_prec_meanprecacc_186.txt.gz
Total_Precipitation_Accumulation
0.24 0.23 0.27 0.35 0.37 0.45 0.59 0.77 1.00 0.89 0.69 0.57 0.56 0.52 0.54 0.60 0.53 0.46 0.42 0.41 0.39 0.35 0.34 0.36 0.39 0.48 0.55 0.68 0.83 0.96 1.01 0.97 0.90 0.83 0.74 0.66 0.60 0.52 0.53 0.49 0.49 0.55 0.71 0.89
0.11 0.13 0.18 0.29 0.42 0.55 0.61 0.68 0.71 0.62 0.58 0.44 0.39 0.35 0.36 0.41 0.40 0.38 0.34 0.29 0.26 0.26 0.23 0.25 0.31 0.38 0.39 0.50 0.65 0.76 0.81 0.84 0.86 0.82 0.65 0.58 0.51 0.44 0.42 0.42 0.43 0.46 0.54 0.70
0.11 0.11 0.19 0.41 0.54 0.60 0.59 0.55 0.47 0.43 0.39 0.29 0.26 0.19 0.19 0.25 0.29 0.32 0.30 0.25 0.22 0.22 0.22 0.25 0.31 0.34 0.35 0.43 0.54 0.59 0.63 0.66 0.69 0.66 0.53 0.47 0.37 0.33 0.36 0.37 0.40 0.42 0.48 0.60
0.17 0.16 0.37 0.62 0.52 0.46 0.49 0.39 0.24 0.22 0.22 0.21 0.16 0.13 0.11 0.11 0.13 0.15 0.18 0.17 0.22 0.20 0.18 0.20 0.26 0.32 0.40 0.42 0.42 0.44 0.48 0.51 0.50 0.50 0.46 0.38 0.31 0.30 0.32 0.35 0.39 0.40 0.44 0.50
0.27 0.28 0.45 0.57 0.38 0.35 0.41 0.36 0.18 0.13 0.12 0.10 0.09 0.07 0.05 0.06 0.07 0.08 0.07 0.08 0.12 0.11 0.11 0.12 0.13 0.14 0.17 0.19 0.21 0.24 0.33 0.39 0.43 0.42 0.39 0.34 0.29 0.35 0.41 0.41 0.41 0.40 0.40 0.42
0.35 0.42 0.54 0.40 0.16 0.16 0.28 0.42 0.16 0.08 0.06 0.05 0.05 0.06 0.05 0.05 0.07 0.05 0.04 0.03 0.05 0.07 0.07 0.07 0.06 0.06 0.05 0.07 0.10 0.14 0.21 0.26 0.32 0.36 0.38 0.40 0.48 0.56 0.57 0.53 0.48 0.43 0.39 0.38
0.42 0.61 0.61 0.36 0.14 0.16 0.30 0.43 0.22 0.08 0.04 0.03 0.03 0.03 0.03 0.04 0.05 0.04 0.03 0.02 0.03 0.05 0.06 0.06 0.05 0.04 0.03 0.03 0.03 0.04 0.06 0.11 0.21 0.34 0.40 0.48 0.58 0.60 0.60 0.54 0.46 0.41 0.38 0.36
0.54 0.71 0.78 0.39 0.20 0.24 0.22 0.14 0.11 0.05 0.03 0.02 0.02 0.02 0.03 0.04 0.03 0.03 0.03 0.03 0.03 0.04 0.04 0.06 0.07 0.05 0.03 0.03 0.03 0.03 0.05 0.09 0.15 0.23 0.32 0.46 0.54 0.52 0.52 0.51 0.47 0.43 0.44 0.41
0.54 0.58 0.49 0.29 0.19 0.14 0.10 0.09 0.04 0.02 0.01 0.01 0.02 0.03 0.04 0.04 0.03 0.03 0.03 0.03 0.04 0.05 0.06 0.06 0.06 0.07 0.06 0.05 0.05 0.04 0.04 0.05 0.08 0.13 0.24 0.39 0.42 0.41 0.44 0.46 0.45 0.44 0.42 0.40
0.22 0.16 0.15 0.12 0.10 0.06 0.04 0.04 0.01 0.01 0.01 0.01 0.02 0.02 0.02 0.03 0.03 0.03 0.03 0.03 0.03 0.04 0.04 0.05 0.05 0.05 0.06 0.06 0.06 0.05 0.04 0.03 0.03 0.05 0.07 0.12 0.17 0.21 0.27 0.33 0.34 0.33 0.35 0.39
0.21 0.11 0.06 0.05 0.04 0.03 0.02 0.02 0.01 0.00 0.01 0.01 0.02 0.02 0.02 0.01 0.02 0.03 0.03 0.03 0.02 0.03 0.04 0.04 0.04 0.03 0.04 0.05 0.06 0.06 0.05 0.04 0.03 0.05 0.06 0.07 0.08 0.11 0.14 0.17 0.21 0.26 0.31 0.35
0.20 0.13 0.07 0.04 0.03 0.02 0.02 0.01 0.01 0.01 0.00 0.00 0.01 0.02 0.02 0.01 0.01 0.01 0.02 0.03 0.03 0.03 0.04 0.04 0.04 0.04 0.04 0.03 0.04 0.06 0.07 0.05 0.03 0.03 0.04 0.04 0.05 0.06 0.07 0.09 0.11 0.13 0.16 0.19
0.09 0.08 0.06 0.06 0.05 0.03 0.02 0.01 0.01 0.01 0.00 0.00 0.00 0.01 0.02 0.01 0.01 0.01 0.01 0.02 0.03 0.03 0.03 0.04 0.05 0.04 0.04 0.04 0.04 0.05 0.06 0.06 0.04 0.03 0.03 0.04 0.05 0.07 0.07 0.05 0.04 0.04 0.06 0.10
0.04 0.06 0.06 0.05 0.03 0.02 0.01 0.01 0.01 0.01 0.00 0.00 0.00 0.01 0.01 0.01 0.01 0.01 0.02 0.02 0.03 0.03 0.03 0.02 0.03 0.03 0.05 0.05 0.05 0.04 0.05 0.06 0.06 0.08 0.09 0.06 0.06 0.10 0.13 0.15 0.11 0.05 0.03 0.05
0.04 0.04 0.05 0.04 0.01 0.01 0.00 0.00 0.01 0.01 0.01 0.00 0.00 0.01 0.00 0.01 0.01 0.01 0.01 0.01 0.02 0.02 0.03 0.02 0.02 0.02 0.03 0.04 0.03 0.04 0.04 0.05 0.07 0.11 0.10 0.10 0.13 0.15 0.14 0.14 0.13 0.09 0.05 0.03
0.03 0.03 0.03 0.02 0.01 0.01 0.01 0.01 0.01 0.01 0.01 0.01 0.01 0.01 0.01 0.01 0.00 0.00 0.01 0.01 0.01 0.01 0.02 0.03 0.03 0.03 0.02 0.03 0.03 0.03 0.04 0.04 0.05 0.07 0.08 0.09 0.10 0.12 0.11 0.10 0.09 0.07 0.06 0.06
0.02 0.02 0.01 0.01 0.01 0.01 0.01 0.01 0.01 0.01 0.01 0.01 0.02 0.01 0.01 0.01 0.00 0.00 0.00 0.01 0.01 0.01 0.01 0.02 0.04 0.04 0.03 0.02 0.03 0.03 0.03 0.04 0.04 0.05 0.05 0.05 0.05 0.06 0.07 0.07 0.06 0.05 0.04 0.04
0.02 0.02 0.02 0.01 0.01 0.01 0.01 0.01 0.01 0.01 0.01 0.02 0.02 0.01 0.01 0.01 0.01 0.01 0.01 0.01 0.01 0.01 0.01 0.01 0.02 0.04 0.04 0.03 0.03 0.03 0.04 0.04 0.04 0.05 0.07 0.07 0.05 0.05 0.06 0.07 0.07 0.06 0.06 0.06
0.03 0.03 0.02 0.02 0.01 0.01 0.02 0.02 0.01 0.01 0.01 0.02 0.02 0.02 0.02 0.02 0.02 0.02 0.02 0.02 0.01 0.01 0.01 0.01 0.01 0.02 0.03 0.03 0.03 0.04 0.04 0.05 0.06 0.06 0.07 0.07 0.07 0.07 0.08 0.08 0.08 0.09 0.10 0.11
0.05 0.04 0.04 0.03 0.03 0.02 0.02 0.02 0.02 0.02 0.01 0.02 0.02 0.02 0.02 0.02 0.01 0.01 0.01 0.02 0.02 0.02 0.02 0.02 0.02 0.02 0.03 0.05 0.06 0.05 0.05 0.06 0.07 0.09 0.09 0.09 0.10 0.10 0.09 0.09 0.10 0.11 0.12 0.13
0.07 0.06 0.05 0.05 0.05 0.04 0.04 0.04 0.03 0.03 0.03 0.03 0.03 0.03 0.02 0.01 0.01 0.01 0.02 0.02 0.02 0.03 0.03 0.04 0.04 0.04 0.05 0.07 0.08 0.07 0.06 0.06 0.07 0.09 0.10 0.12 0.13 0.14 0.14 0.13 0.13 0.13 0.14 0.14
0.08 0.08 0.07 0.06 0.06 0.06 0.06 0.06 0.06 0.05 0.05 0.05 0.04 0.04 0.03 0.03 0.03 0.03 0.03 0.04 0.04 0.05 0.05 0.06 0.06 0.07 0.09 0.10 0.09 0.09 0.09 0.09 0.09 0.10 0.12 0.13 0.15 0.18 0.19 0.18 0.17 0.16 0.16 0.18
0.08 0.08 0.08 0.07 0.07 0.07 0.07 0.07 0.08 0.07 0.07 0.07 0.07 0.06 0.06 0.07 0.07 0.07 0.08 0.08 0.08 0.09 0.09 0.09 0.10 0.11 0.12 0.11 0.11 0.10 0.10 0.12 0.13 0.14 0.15 0.16 0.16 0.19 0.22 0.23 0.22 0.21 0.21 0.22
0.10 0.09 0.08 0.07 0.07 0.08 0.09 0.10 0.10 0.10 0.10 0.10 0.10 0.10 0.10 0.11 0.11 0.12 0.12 0.12 0.12 0.12 0.10 0.11 0.12 0.13 0.13 0.11 0.13 0.15 0.15 0.15 0.16 0.18 0.20 0.23 0.22 0.22 0.25 0.26 0.28 0.28 0.28 0.28
0.13 0.11 0.09 0.09 0.10 0.12 0.14 0.13 0.11 0.10 0.10 0.10 0.10 0.10 0.10 0.11 0.12 0.13 0.14 0.14 0.15 0.14 0.13 0.13 0.16 0.17 0.15 0.14 0.17 0.19 0.20 0.20 0.22 0.22 0.22 0.24 0.25 0.26 0.27 0.28 0.29 0.31 0.32 0.32
0.10 0.09 0.08 0.08 0.09 0.10 0.10 0.10 0.10 0.11 0.10 0.10 0.11 0.11 0.11 0.12 0.13 0.14 0.15 0.14 0.15 0.16 0.14 0.13 0.13 0.14 0.14 0.16 0.18 0.20 0.22 0.23 0.23 0.23 0.23 0.26 0.28 0.29 0.31 0.33 0.33 0.35 0.36 0.36
0.08 0.08 0.07 0.07 0.06 0.07 0.08 0.09 0.10 0.12 0.13 0.15 0.16 0.17 0.16 0.17 0.17 0.17 0.15 0.14 0.14 0.16 0.16 0.17 0.16 0.16 0.17 0.19 0.20 0.21 0.22 0.23 0.23 0.24 0.26 0.28 0.31 0.34 0.35 0.35 0.37 0.39 0.42 0.43

GEFSNGP_prec_meanprecacc_192.txt.gz
Total_Precipitation_Accumulation
0.25 0.24 0.29 0.36 0.38 0.46 0.60 0.78 1.01 0.91 0.70 0.58 0.56 0.53 0.55 0.60 0.53 0.47 0.44 0.42 0.40 0.37 0.36 0.37 0.39 0.48 0.55 0.68 0.84 0.96 1.02 0.98 0.90 0.84 0.74 0.67 0.60 0.53 0.54 0.50 0.49 0.56 0.72 0.90
0.12 0.14 0.19 0.30 0.43 0.56 0.62 0.69 0.71 0.62 0.58 0.44 0.39 0.35 0.36 0.42 0.41 0.40 0.35 0.30 0.27 0.28 0.26 0.28 0.32 0.39 0.40 0.50 0.66 0.77 0.82 0.84 0.87 0.82 0.66 0.58 0.51 0.45 0.42 0.43 0.44 0.47 0.55 0.71
0.12 0.11 0.20 0.42 0.54 0.61 0.60 0.55 0.47 0.43 0.39 0.29 0.26 0.20 0.20 0.27 0.30 0.33 0.31 0.25 0.23 0.22 0.23 0.27 0.35 0.37 0.37 0.44 0.55 0.59 0.63 0.67 0.70 0.67 0.53 0.47 0.38 0.33 0.36 0.37 0.41 0.43 0.49 0.61
0.18 0.17 0.38 0.63 0.52 0.46 0.50 0.39 0.24 0.22 0.22 0.21 0.17 0.13 0.11 0.12 0.14 0.15 0.18 0.18 0.22 0.20 0.19 0.21 0.27 0.34 0.42 0.43 0.43 0.44 0.48 0.51 0.51 0.51 0.46 0.39 0.31 0.30 0.32 0.35 0.40 0.41 0.45 0.50
0.28 0.29 0.45 0.57 0.38 0.35 0.41 0.36 0.18 0.13 0.12 0.10 0.09 0.07 0.05 0.06 0.08 0.09 0.08 0.09 0.12 0.12 0.12 0.13 0.14 0.15 0.17 0.20 0.22 0.25 0.34 0.40 0.44 0.43 0.39 0.34 0.29 0.36 0.42 0.42 0.42 0.41 0.40 0.42
0.36 0.43 0.55 0.41 0.16 0.16 0.28 0.42 0.16 0.08 0.06 0.05 0.05 0.07 0.05 0.05 0.07 0.06 0.04 0.04 0.05 0.08 0.08 0.08 0.07 0.06 0.06 0.07 0.11 0.15 0.21 0.27 0.33 0.37 0.38 0.41 0.49 0.57 0.58 0.54 0.49 0.44 0.40 0.39
0.43 0.62 0.62 0.36 0.14 0.16 0.30 0.43 0.22 0.08 0.04 0.03 0.03 0.03 0.03 0.04 0.05 0.04 0.03 0.02 0.03 0.05 0.06 0.07 0.06 0.05 0.05 0.05 0.04 0.04 0.07 0.12 0.21 0.34 0.40 0.48 0.59 0.61 0.61 0.56 0.46 0.41 0.39 0.37
0.54 0.71 0.78 0.40 0.21 0.24 0.22 0.14 0.11 0.06 0.03 0.02 0.02 0.03 0.03 0.04 0.03 0.03 0.04 0.03 0.03 0.04 0.05 0.07 0.08 0.06 0.06 0.10 0.06 0.04 0.06 0.10 0.15 0.24 0.33 0.46 0.54 0.53 0.53 0.54 0.49 0.44 0.45 0.42
0.54 0.59 0.50 0.30 0.19 0.14 0.10 0.09 0.04 0.02 0.02 0.01 0.02 0.03 0.04 0.04 0.03 0.03 0.03 0.03 0.04 0.05 0.06 0.06 0.07 0.07 0.07 0.06 0.07 0.06 0.06 0.07 0.09 0.15 0.26 0.40 0.43 0.42 0.45 0.48 0.48 0.45 0.42 0.40
0.22 0.16 0.15 0.13 0.10 0.06 0.04 0.04 0.02 0.01 0.01 0.01 0.02 0.02 0.03 0.03 0.03 0.03 0.03 0.03 0.03 0.04 0.04 0.05 0.05 0.05 0.06 0.06 0.06 0.05 0.05 0.05 0.05 0.06 0.08 0.14 0.18 0.22 0.29 0.34 0.35 0.35 0.37 0.40
0.22 0.11 0.06 0.05 0.04 0.03 0.02 0.02 0.01 0.00 0.01 0.01 0.02 0.02 0.02 0.01 0.02 0.03 0.04 0.03 0.03 0.03 0.04 0.04 0.04 0.04 0.04 0.05 0.06 0.07 0.06 0.04 0.04 0.06 0.07 0.07 0.09 0.12 0.15 0.18 0.21 0.27 0.32 0.35
0.20 0.13 0.07 0.04 0.03 0.03 0.02 0.01 0.01 0.01 0.00 0.00 0.01 0.02 0.02 0.01 0.01 0.01 0.02 0.03 0.03 0.03 0.04 0.04 0.04 0.04 0.04 0.04 0.04 0.06 0.07 0.06 0.04 0.04 0.05 0.05 0.06 0.07 0.09 0.10 0.12 0.14 0.17 0.19
0.09 0.09 0.06 0.06 0.05 0.03 0.02 0.01 0.01 0.01 0.00 0.00 0.00 0.01 0.02 0.01 0.01 0.01 0.01 0.02 0.03 0.03 0.03 0.04 0.05 0.05 0.05 0.05 0.05 0.06 0.07 0.07 0.06 0.04 0.05 0.06 0.07 0.09 0.09 0.07 0.05 0.05 0.07 0.10
0.04 0.06 0.07 0.05 0.03 0.02 0.01 0.01 0.01 0.01 0.00 0.00 0.00 0.01 0.01 0.01 0.01 0.01 0.02 0.02 0.03 0.03 0.03 0.03 0.03 0.04 0.06 0.06 0.07 0.07 0.07 0.09 0.09 0.10 0.11 0.08 0.09 0.12 0.15 0.17 0.13 0.07 0.04 0.06
0.04 0.05 0.06 0.04 0.02 0.01 0.00 0.00 0.01 0.01 0.01 0.00 0.00 0.01 0.01 0.01 0.01 0.01 0.01 0.01 0.02 0.02 0.03 0.03 0.03 0.03 0.05 0.06 0.07 0.07 0.07 0.08 0.10 0.14 0.14 0.14 0.16 0.18 0.17 0.16 0.14 0.10 0.07 0.04
0.03 0.03 0.03 0.03 0.01 0.01 0.01 0.01 0.01 0.01 0.01 0.01 0.01 0.01 0.01 0.01 0.01 0.01 0.01 0.01 0.02 0.02 0.03 0.03 0.03 0.04 0.05 0.06 0.06 0.06 0.07 0.07 0.07 0.10 0.12 0.14 0.15 0.15 0.13 0.12 0.10 0.08 0.07 0.06
0.02 0.02 0.02 0.01 0.01 0.01 0.01 0.01 0.01 0.02 0.02 0.02 0.02 0.01 0.01 0.01 0.01 0.01 0.01 0.01 0.01 0.02 0.02 0.03 0.04 0.05 0.05 0.05 0.04 0.04 0.05 0.06 0.06 0.07 0.08 0.09 0.09 0.09 0.10 0.09 0.08 0.06 0.04 0.04
0.02 0.02 0.02 0.01 0.01 0.01 0.01 0.01 0.01 0.01 0.02 0.02 0.03 0.02 0.01 0.01 0.01 0.01 0.02 0.01 0.01 0.01 0.01 0.01 0.03 0.05 0.05 0.04 0.04 0.04 0.04 0.05 0.06 0.07 0.09 0.09 0.08 0.09 0.09 0.09 0.09 0.08 0.07 0.06
0.03 0.03 0.02 0.02 0.01 0.01 0.02 0.02 0.01 0.01 0.02 0.03 0.03 0.02 0.02 0.02 0.02 0.02 0.02 0.02 0.02 0.01 0.01 0.02 0.02 0.03 0.04 0.04 0.04 0.04 0.05 0.06 0.07 0.07 0.08 0.08 0.09 0.09 0.09 0.09 0.09 0.10 0.12 0.12
0.05 0.05 0.04 0.03 0.03 0.02 0.02 0.02 0.02 0.02 0.02 0.02 0.03 0.03 0.02 0.02 0.02 0.01 0.02 0.02 0.03 0.02 0.02 0.02 0.02 0.02 0.03 0.05 0.06 0.06 0.05 0.06 0.08 0.09 0.10 0.11 0.11 0.11 0.11 0.10 0.11 0.12 0.13 0.14
0.07 0.07 0.05 0.05 0.05 0.05 0.04 0.04 0.04 0.03 0.03 0.03 0.03 0.03 0.03 0.02 0.01 0.02 0.02 0.03 0.03 0.03 0.03 0.04 0.04 0.04 0.05 0.07 0.08 0.07 0.06 0.06 0.08 0.10 0.11 0.13 0.15 0.15 0.16 0.14 0.14 0.15 0.15 0.15
0.09 0.09 0.08 0.06 0.06 0.06 0.06 0.06 0.06 0.05 0.05 0.05 0.05 0.04 0.04 0.03 0.03 0.03 0.03 0.04 0.05 0.06 0.06 0.06 0.06 0.07 0.09 0.10 0.09 0.09 0.09 0.09 0.09 0.11 0.12 0.14 0.17 0.19 0.20 0.19 0.18 0.16 0.17 0.19
0.08 0.09 0.09 0.08 0.07 0.07 0.07 0.08 0.08 0.07 0.07 0.07 0.07 0.07 0.07 0.07 0.07 0.08 0.08 0.08 0.08 0.09 0.09 0.10 0.10 0.11 0.12 0.11 0.11 0.10 0.11 0.12 0.13 0.14 0.16 0.17 0.17 0.21 0.24 0.24 0.23 0.22 0.22 0.23
0.10 0.09 0.09 0.09 0.08 0.08 0.10 0.11 0.10 0.10 0.10 0.10 0.10 0.11 0.11 0.11 0.12 0.12 0.13 0.13 0.13 0.12 0.10 0.11 0.12 0.13 0.13 0.11 0.13 0.15 0.15 0.15 0.17 0.19 0.21 0.24 0.23 0.24 0.27 0.29 0.30 0.30 0.29 0.29
0.13 0.11 0.10 0.12 0.12 0.13 0.14 0.13 0.11 0.10 0.10 0.10 0.10 0.10 0.11 0.12 0.13 0.14 0.14 0.15 0.15 0.14 0.13 0.14 0.16 0.17 0.15 0.14 0.17 0.19 0.20 0.21 0.22 0.23 0.24 0.26 0.27 0.28 0.29 0.31 0.32 0.34 0.35 0.34
0.10 0.09 0.09 0.11 0.11 0.11 0.11 0.10 0.10 0.11 0.11 0.11 0.11 0.12 0.12 0.13 0.14 0.15 0.15 0.15 0.15 0.16 0.15 0.14 0.13 0.14 0.14 0.16 0.18 0.20 0.22 0.23 0.24 0.24 0.26 0.29 0.31 0.32 0.33 0.34 0.35 0.37 0.39 0.40
0.09 0.09 0.08 0.08 0.08 0.08 0.08 0.09 0.10 0.12 0.14 0.16 0.17 0.17 0.17 0.18 0.18 0.18 0.17 0.15 0.15 0.16 0.16 0.17 0.17 0.16 0.17 0.19 0.20 0.21 0.23 0.24 0.24 0.26 0.29 0.31 0.35 0.38 0.39 0.38 0.39 0.41 0.45 0.47

GEFSNGP_prec_meanprecacc_198.txt.gz
Total_Precipitation_Accumulation
0.26 0.24 0.29 0.37 0.39 0.47 0.62 0.80 1.03 0.92 0.71 0.59 0.57 0.53 0.55 0.61 0.54 0.49 0.46 0.45 0.44 0.41 0.41 0.42 0.44 0.52 0.58 0.70 0.86 0.97 1.02 0.99 0.91 0.84 0.74 0.67 0.60 0.53 0.54 0.50 0.50 0.56 0.73 0.90
0.13 0.14 0.19 0.31 0.44 0.57 0.63 0.70 0.72 0.63 0.59 0.45 0.40 0.36 0.37 0.43 0.42 0.41 0.36 0.31 0.29 0.30 0.29 0.32 0.37 0.44 0.43 0.53 0.68 0.78 0.83 0.85 0.87 0.83 0.66 0.58 0.51 0.45 0.43 0.43 0.45 0.48 0.57 0.73
0.13 0.12 0.21 0.43 0.55 0.61 0.61 0.56 0.48 0.45 0.41 0.30 0.26 0.21 0.21 0.27 0.30 0.34 0.33 0.27 0.24 0.23 0.24 0.29 0.38 0.40 0.40 0.48 0.59 0.62 0.65 0.68 0.71 0.68 0.54 0.48 0.38 0.34 0.37 0.38 0.42 0.45 0.51 0.64
0.19 0.17 0.39 0.63 0.53 0.47 0.51 0.40 0.26 0.23 0.24 0.23 0.18 0.14 0.12 0.13 0.15 0.16 0.20 0.20 0.24 0.21 0.19 0.22 0.29 0.36 0.44 0.46 0.47 0.47 0.50 0.53 0.52 0.52 0.47 0.40 0.32 0.31 0.33 0.36 0.42 0.44 0.47 0.52
0.29 0.29 0.46 0.58 0.38 0.35 0.41 0.38 0.20 0.14 0.14 0.12 0.11 0.09 0.06 0.06 0.09 0.10 0.09 0.10 0.13 0.13 0.13 0.14 0.15 0.16 0.19 0.22 0.25 0.28 0.36 0.41 0.45 0.44 0.40 0.35 0.30 0.36 0.42 0.43 0.43 0.42 0.42 0.44
0.37 0.44 0.56 0.41 0.16 0.16 0.29 0.43 0.17 0.09 0.08 0.07 0.07 0.08 0.06 0.06 0.08 0.07 0.05 0.04 0.06 0.09 0.08 0.08 0.08 0.07 0.06 0.08 0.12 0.17 0.24 0.29 0.34 0.38 0.39 0.41 0.49 0.57 0.58 0.54 0.49 0.44 0.40 0.39
0.44 0.63 0.63 0.36 0.15 0.16 0.30 0.43 0.22 0.09 0.05 0.05 0.04 0.04 0.03 0.05 0.06 0.05 0.04 0.03 0.04 0.06 0.07 0.07 0.07 0.05 0.05 0.05 0.04 0.05 0.08 0.13 0.23 0.35 0.41 0.49 0.59 0.62 0.62 0.56 0.46 0.41 0.39 0.37
0.55 0.72 0.79 0.40 0.21 0.24 0.22 0.15 0.12 0.06 0.04 0.04 0.03 0.03 0.04 0.04 0.04 0.04 0.04 0.03 0.04 0.04 0.05 0.07 0.08 0.07 0.07 0.11 0.07 0.04 0.06 0.12 0.18 0.26 0.35 0.48 0.56 0.54 0.54 0.54 0.49 0.44 0.45 0.42
0.55 0.60 0.51 0.31 0.20 0.14 0.10 0.10 0.05 0.03 0.02 0.02 0.02 0.03 0.04 0.06 0.05 0.04 0.04 0.04 0.05 0.05 0.06 0.07 0.07 0.08 0.07 0.07 0.08 0.06 0.07 0.08 0.10 0.16 0.28 0.42 0.45 0.44 0.46 0.49 0.48 0.45 0.42 0.40
0.22 0.17 0.16 0.14 0.11 0.06 0.04 0.04 0.02 0.01 0.01 0.01 0.02 0.03 0.04 0.05 0.05 0.05 0.05 0.05 0.04 0.04 0.05 0.05 0.06 0.06 0.07 0.07 0.07 0.06 0.06 0.06 0.06 0.07 0.10 0.15 0.20 0.25 0.31 0.35 0.36 0.35 0.37 0.40
0.22 0.11 0.07 0.06 0.05 0.03 0.02 0.02 0.01 0.00 0.01 0.01 0.02 0.02 0.03 0.05 0.05 0.05 0.06 0.05 0.04 0.04 0.05 0.05 0.04 0.04 0.05 0.06 0.07 0.07 0.06 0.05 0.05 0.08 0.11 0.11 0.12 0.15 0.18 0.20 0.23 0.28 0.33 0.36
0.21 0.13 0.07 0.04 0.03 0.03 0.02 0.01 0.01 0.01 0.00 0.00 0.01 0.02 0.02 0.03 0.04 0.04 0.05 0.05 0.05 0.05 0.06 0.05 0.05 0.05 0.05 0.04 0.05 0.07 0.08 0.06 0.05 0.05 0.07 0.08 0.09 0.10 0.10 0.11 0.13 0.15 0.18 0.20
0.09 0.09 0.06 0.06 0.06 0.03 0.02 0.01 0.01 0.01 0.01 0.00 0.00 0.01 0.02 0.02 0.03 0.03 0.04 0.04 0.04 0.05 0.05 0.05 0.06 0.05 0.05 0.05 0.06 0.07 0.08 0.08 0.06 0.05 0.06 0.08 0.09 0.11 0.10 0.08 0.06 0.05 0.07 0.11
0.04 0.06 0.07 0.05 0.03 0.02 0.01 0.01 0.01 0.01 0.00 0.00 0.00 0.01 0.01 0.02 0.03 0.03 0.03 0.03 0.04 0.04 0.04 0.04 0.03 0.04 0.06 0.06 0.07 0.07 0.08 0.10 0.10 0.11 0.12 0.10 0.10 0.14 0.17 0.18 0.14 0.07 0.05 0.06
0.04 0.05 0.06 0.04 0.02 0.01 0.00 0.00 0.01 0.01 0.01 0.00 0.00 0.01 0.01 0.01 0.02 0.03 0.03 0.03 0.03 0.03 0.04 0.03 0.03 0.04 0.05 0.06 0.07 0.08 0.08 0.08 0.10 0.15 0.14 0.14 0.17 0.19 0.18 0.17 0.16 0.11 0.08 0.05
0.04 0.03 0.03 0.03 0.01 0.01 0.01 0.01 0.01 0.01 0.01 0.01 0.01 0.01 0.01 0.02 0.02 0.03 0.03 0.04 0.04 0.03 0.03 0.04 0.04 0.05 0.06 0.06 0.07 0.07 0.08 0.08 0.08 0.10 0.12 0.15 0.16 0.17 0.15 0.13 0.11 0.09 0.08 0.07
0.02 0.02 0.02 0.02 0.01 0.01 0.01 0.01 0.01 0.02 0.02 0.02 0.02 0.02 0.01 0.01 0.02 0.02 0.03 0.03 0.04 0.03 0.02 0.03 0.05 0.06 0.06 0.06 0.05 0.06 0.08 0.08 0.08 0.08 0.09 0.10 0.10 0.11 0.12 0.11 0.10 0.07 0.06 0.05
0.02 0.02 0.02 0.02 0.01 0.01 0.01 0.01 0.01 0.01 0.02 0.03 0.03 0.03 0.02 0.02 0.02 0.03 0.03 0.03 0.03 0.02 0.02 0.02 0.03 0.05 0.05 0.05 0.05 0.05 0.07 0.08 0.07 0.07 0.09 0.09 0.09 0.10 0.12 0.13 0.13 0.11 0.09 0.08
0.03 0.03 0.02 0.02 0.01 0.01 0.02 0.02 0.01 0.01 0.02 0.03 0.03 0.03 0.03 0.04 0.04 0.03 0.04 0.04 0.02 0.02 0.02 0.02 0.02 0.03 0.04 0.05 0.05 0.05 0.06 0.07 0.07 0.08 0.09 0.08 0.09 0.10 0.11 0.11 0.12 0.13 0.15 0.15
0.05 0.05 0.04 0.03 0.03 0.03 0.02 0.02 0.02 0.02 0.02 0.02 0.03 0.04 0.04 0.03 0.03 0.03 0.03 0.03 0.03 0.03 0.03 0.03 0.03 0.02 0.04 0.06 0.07 0.06 0.06 0.07 0.08 0.10 0.10 0.11 0.12 0.12 0.11 0.11 0.12 0.13 0.14 0.16
0.08 0.08 0.06 0.05 0.05 0.05 0.04 0.04 0.04 0.03 0.03 0.03 0.04 0.04 0.04 0.03 0.02 0.02 0.03 0.03 0.03 0.04 0.04 0.04 0.04 0.04 0.05 0.08 0.09 0.07 0.06 0.07 0.08 0.10 0.11 0.13 0.15 0.15 0.16 0.15 0.14 0.15 0.15 0.16
0.10 0.10 0.08 0.07 0.06 0.06 0.06 0.06 0.06 0.05 0.05 0.05 0.05 0.05 0.04 0.04 0.04 0.04 0.04 0.05 0.05 0.06 0.06 0.07 0.07 0.08 0.09 0.11 0.09 0.09 0.10 0.09 0.10 0.11 0.13 0.14 0.17 0.20 0.20 0.19 0.18 0.17 0.17 0.19
0.09 0.09 0.09 0.08 0.08 0.07 0.07 0.08 0.08 0.08 0.07 0.07 0.07 0.07 0.07 0.07 0.08 0.09 0.09 0.09 0.10 0.11 0.10 0.10 0.11 0.12 0.13 0.12 0.11 0.11 0.11 0.13 0.14 0.15 0.17 0.17 0.18 0.22 0.25 0.25 0.24 0.22 0.22 0.24
0.11 0.10 0.09 0.10 0.09 0.10 0.11 0.12 0.11 0.11 0.11 0.11 0.11 0.11 0.11 0.12 0.13 0.13 0.14 0.15 0.14 0.13 0.11 0.12 0.13 0.13 0.13 0.11 0.13 0.15 0.15 0.16 0.18 0.19 0.22 0.24 0.23 0.25 0.28 0.29 0.30 0.30 0.30 0.30
0.14 0.12 0.12 0.15 0.16 0.16 0.17 0.15 0.13 0.11 0.11 0.11 0.10 0.11 0.11 0.13 0.14 0.15 0.16 0.16 0.16 0.15 0.14 0.15 0.16 0.17 0.15 0.14 0.17 0.19 0.21 0.21 0.23 0.24 0.24 0.26 0.27 0.28 0.29 0.31 0.33 0.35 0.35 0.35
0.11 0.11 0.12 0.15 0.17 0.16 0.14 0.12 0.12 0.12 0.11 0.11 0.11 0.12 0.12 0.13 0.14 0.16 0.16 0.16 0.16 0.16 0.15 0.14 0.14 0.15 0.15 0.17 0.19 0.20 0.22 0.24 0.24 0.24 0.26 0.29 0.31 0.32 0.33 0.35 0.35 0.38 0.40 0.40
0.11 0.11 0.11 0.14 0.16 0.14 0.11 0.10 0.11 0.13 0.14 0.16 0.18 0.18 0.17 0.18 0.18 0.18 0.17 0.17 0.17 0.16 0.17 0.17 0.17 0.17 0.19 0.21 0.22 0.22 0.23 0.25 0.25 0.27 0.29 0.32 0.36 0.38 0.39 0.39 0.40 0.42 0.46 0.48

GEFSNGP_prec_meanprecacc_204.txt.gz
Total_Precipitation_Accumulation
0.26 0.25 0.30 0.37 0.39 0.47 0.62 0.80 1.03 0.92 0.71 0.59 0.58 0.54 0.56 0.62 0.55 0.50 0.48 0.47 0.46 0.43 0.43 0.45 0.48 0.55 0.61 0.73 0.90 1.01 1.04 1.00 0.92 0.85 0.76 0.68 0.62 0.53 0.54 0.50 0.50 0.58 0.75 0.92
0.13 0.15 0.21 0.31 0.44 0.57 0.63 0.70 0.72 0.63 0.59 0.45 0.40 0.36 0.37 0.43 0.43 0.42 0.37 0.33 0.33 0.34 0.33 0.35 0.40 0.48 0.47 0.56 0.72 0.83 0.86 0.87 0.89 0.84 0.67 0.60 0.54 0.46 0.43 0.44 0.45 0.49 0.59 0.75
0.14 0.13 0.22 0.43 0.55 0.61 0.61 0.56 0.48 0.45 0.41 0.30 0.26 0.21 0.21 0.28 0.31 0.35 0.33 0.28 0.27 0.27 0.29 0.33 0.41 0.44 0.45 0.53 0.64 0.66 0.68 0.70 0.72 0.69 0.55 0.50 0.40 0.36 0.38 0.39 0.43 0.45 0.52 0.65
0.21 0.18 0.40 0.64 0.53 0.47 0.51 0.41 0.26 0.23 0.24 0.23 0.18 0.14 0.12 0.13 0.16 0.17 0.21 0.22 0.26 0.24 0.23 0.26 0.33 0.42 0.51 0.52 0.51 0.51 0.54 0.56 0.54 0.53 0.48 0.41 0.34 0.32 0.34 0.37 0.42 0.44 0.48 0.53
0.31 0.30 0.46 0.58 0.38 0.35 0.42 0.38 0.20 0.15 0.14 0.12 0.12 0.09 0.07 0.07 0.10 0.11 0.10 0.12 0.16 0.16 0.16 0.16 0.18 0.21 0.25 0.27 0.28 0.30 0.38 0.45 0.48 0.46 0.41 0.36 0.32 0.38 0.43 0.44 0.43 0.42 0.42 0.44
0.38 0.44 0.56 0.41 0.16 0.16 0.29 0.43 0.18 0.09 0.09 0.08 0.08 0.09 0.07 0.08 0.09 0.08 0.07 0.06 0.09 0.12 0.11 0.10 0.10 0.10 0.10 0.11 0.14 0.18 0.25 0.31 0.37 0.41 0.41 0.43 0.51 0.59 0.59 0.54 0.49 0.44 0.40 0.39
0.45 0.63 0.63 0.36 0.15 0.17 0.30 0.44 0.23 0.09 0.06 0.06 0.07 0.07 0.07 0.08 0.08 0.07 0.05 0.04 0.06 0.08 0.09 0.09 0.09 0.08 0.07 0.07 0.05 0.06 0.10 0.15 0.25 0.39 0.45 0.52 0.61 0.63 0.62 0.56 0.46 0.41 0.39 0.37
0.56 0.72 0.79 0.40 0.21 0.24 0.23 0.15 0.12 0.07 0.05 0.05 0.05 0.06 0.07 0.07 0.06 0.06 0.06 0.05 0.06 0.06 0.07 0.09 0.10 0.08 0.08 0.12 0.08 0.07 0.09 0.14 0.20 0.29 0.40 0.53 0.61 0.58 0.56 0.56 0.50 0.45 0.45 0.42
0.56 0.60 0.51 0.31 0.20 0.15 0.10 0.10 0.05 0.04 0.03 0.03 0.03 0.05 0.06 0.07 0.07 0.05 0.06 0.05 0.06 0.07 0.07 0.08 0.08 0.09 0.08 0.09 0.09 0.08 0.09 0.09 0.11 0.18 0.30 0.45 0.50 0.49 0.50 0.51 0.50 0.46 0.43 0.40
0.23 0.17 0.16 0.14 0.11 0.06 0.04 0.05 0.02 0.01 0.01 0.02 0.02 0.03 0.05 0.06 0.06 0.06 0.06 0.05 0.05 0.05 0.06 0.06 0.07 0.07 0.09 0.09 0.08 0.07 0.08 0.08 0.08 0.08 0.10 0.16 0.21 0.26 0.33 0.38 0.39 0.38 0.38 0.41
0.22 0.11 0.07 0.06 0.05 0.03 0.02 0.02 0.01 0.01 0.01 0.01 0.02 0.02 0.03 0.05 0.05 0.05 0.06 0.06 0.05 0.05 0.06 0.06 0.06 0.06 0.08 0.08 0.08 0.08 0.08 0.07 0.07 0.09 0.12 0.12 0.13 0.16 0.19 0.21 0.26 0.31 0.34 0.37
0.21 0.14 0.07 0.05 0.04 0.03 0.02 0.01 0.01 0.01 0.01 0.00 0.01 0.02 0.02 0.03 0.04 0.04 0.05 0.05 0.05 0.06 0.07 0.07 0.06 0.07 0.07 0.07 0.08 0.08 0.09 0.08 0.06 0.07 0.09 0.09 0.10 0.12 0.13 0.13 0.15 0.16 0.19 0.21
0.09 0.09 0.07 0.06 0.06 0.03 0.02 0.01 0.01 0.01 0.01 0.00 0.00 0.01 0.02 0.02 0.03 0.03 0.04 0.04 0.05 0.05 0.06 0.07 0.07 0.07 0.08 0.09 0.09 0.09 0.10 0.10 0.08 0.06 0.07 0.09 0.11 0.13 0.14 0.11 0.07 0.06 0.08 0.11
0.05 0.06 0.07 0.05 0.03 0.02 0.01 0.01 0.01 0.01 0.00 0.00 0.00 0.01 0.01 0.02 0.03 0.03 0.03 0.03 0.04 0.05 0.06 0.05 0.05 0.05 0.08 0.09 0.10 0.09 0.10 0.12 0.12 0.12 0.13 0.11 0.12 0.16 0.19 0.20 0.15 0.08 0.06 0.08
0.04 0.05 0.06 0.05 0.02 0.01 0.01 0.01 0.01 0.01 0.01 0.00 0.00 0.01 0.01 0.01 0.02 0.03 0.03 0.04 0.04 0.04 0.05 0.04 0.04 0.05 0.07 0.08 0.09 0.10 0.10 0.10 0.12 0.16 0.15 0.16 0.18 0.21 0.20 0.19 0.16 0.12 0.08 0.06
0.04 0.03 0.04 0.03 0.02 0.01 0.01 0.01 0.01 0.02 0.01 0.01 0.01 0.01 0.01 0.02 0.02 0.03 0.04 0.04 0.05 0.04 0.04 0.04 0.04 0.05 0.07 0.08 0.08 0.09 0.10 0.10 0.10 0.12 0.14 0.16 0.17 0.18 0.16 0.15 0.12 0.10 0.09 0.08
0.03 0.03 0.02 0.02 0.01 0.01 0.01 0.01 0.02 0.02 0.02 0.02 0.02 0.02 0.01 0.02 0.02 0.02 0.03 0.04 0.05 0.04 0.03 0.04 0.05 0.07 0.07 0.07 0.07 0.08 0.09 0.10 0.09 0.09 0.10 0.11 0.11 0.12 0.13 0.12 0.11 0.08 0.07 0.06
0.02 0.02 0.02 0.02 0.02 0.03 0.03 0.02 0.02 0.02 0.03 0.03 0.04 0.03 0.03 0.02 0.02 0.03 0.04 0.04 0.04 0.03 0.03 0.03 0.04 0.07 0.07 0.06 0.07 0.08 0.09 0.09 0.08 0.08 0.10 0.10 0.10 0.11 0.12 0.14 0.14 0.12 0.10 0.09
0.03 0.03 0.03 0.02 0.03 0.03 0.04 0.04 0.03 0.03 0.03 0.03 0.04 0.03 0.03 0.04 0.04 0.04 0.04 0.04 0.03 0.03 0.02 0.03 0.04 0.04 0.05 0.06 0.06 0.06 0.08 0.09 0.09 0.09 0.10 0.09 0.10 0.11 0.12 0.13 0.14 0.15 0.16 0.15
0.05 0.05 0.05 0.05 0.05 0.05 0.05 0.04 0.04 0.03 0.02 0.03 0.03 0.04 0.04 0.03 0.03 0.03 0.03 0.04 0.04 0.04 0.03 0.03 0.03 0.03 0.04 0.06 0.08 0.07 0.07 0.08 0.10 0.11 0.11 0.12 0.13 0.13 0.13 0.12 0.13 0.14 0.15 0.16
0.08 0.09 0.07 0.07 0.07 0.06 0.06 0.05 0.04 0.04 0.03 0.03 0.04 0.04 0.04 0.03 0.02 0.03 0.03 0.04 0.04 0.04 0.04 0.05 0.05 0.05 0.05 0.08 0.10 0.08 0.07 0.08 0.10 0.11 0.12 0.14 0.16 0.16 0.17 0.16 0.15 0.15 0.16 0.16
0.10 0.10 0.09 0.07 0.07 0.07 0.06 0.06 0.06 0.05 0.05 0.05 0.05 0.05 0.04 0.04 0.04 0.04 0.04 0.05 0.06 0.07 0.07 0.07 0.07 0.08 0.10 0.11 0.10 0.10 0.10 0.10 0.11 0.12 0.13 0.15 0.18 0.20 0.21 0.20 0.19 0.18 0.18 0.20
0.09 0.10 0.10 0.09 0.08 0.07 0.07 0.08 0.08 0.08 0.08 0.07 0.07 0.07 0.08 0.08 0.08 0.09 0.10 0.10 0.11 0.11 0.11 0.11 0.11 0.12 0.14 0.12 0.12 0.11 0.12 0.13 0.14 0.15 0.17 0.18 0.19 0.23 0.26 0.25 0.25 0.23 0.24 0.25
0.11 0.10 0.10 0.10 0.10 0.10 0.11 0.12 0.12 0.11 0.11 0.11 0.11 0.12 0.12 0.13 0.13 0.14 0.15 0.15 0.15 0.14 0.11 0.12 0.13 0.14 0.13 0.11 0.14 0.16 0.16 0.17 0.19 0.20 0.22 0.25 0.24 0.26 0.28 0.30 0.31 0.31 0.30 0.31
0.14 0.13 0.12 0.15 0.16 0.17 0.18 0.17 0.14 0.13 0.12 0.12 0.12 0.12 0.12 0.13 0.15 0.16 0.16 0.17 0.16 0.15 0.14 0.15 0.17 0.17 0.15 0.14 0.17 0.20 0.21 0.22 0.24 0.25 0.26 0.27 0.28 0.28 0.30 0.31 0.33 0.35 0.36 0.35
0.11 0.11 0.12 0.15 0.18 0.17 0.16 0.14 0.13 0.13 0.12 0.12 0.13 0.13 0.13 0.13 0.14 0.16 0.17 0.17 0.17 0.17 0.16 0.15 0.15 0.15 0.15 0.17 0.19 0.21 0.23 0.24 0.25 0.25 0.27 0.30 0.32 0.33 0.34 0.36 0.36 0.39 0.41 0.41
0.11 0.11 0.12 0.15 0.17 0.16 0.13 0.12 0.13 0.14 0.15 0.17 0.18 0.18 0.18 0.18 0.19 0.19 0.18 0.18 0.18 0.18 0.18 0.19 0.19 0.18 0.19 0.21 0.22 0.23 0.24 0.25 0.26 0.28 0.31 0.33 0.37 0.39 0.41 0.40 0.41 0.43 0.46 0.48

GEFSNGP_prec_meanprecacc_210.txt.gz
Total_Precipitation_Accumulation
0.27 0.26 0.30 0.38 0.39 0.48 0.62 0.80 1.03 0.92 0.71 0.59 0.58 0.54 0.56 0.62 0.55 0.51 0.48 0.47 0.47 0.44 0.45 0.48 0.51 0.59 0.66 0.77 0.94 1.05 1.10 1.05 0.94 0.86 0.77 0.69 0.63 0.55 0.56 0.51 0.51 0.58 0.75 0.92
0.14 0.16 0.21 0.32 0.44 0.57 0.63 0.70 0.72 0.63 0.59 0.45 0.40 0.36 0.37 0.44 0.43 0.42 0.38 0.33 0.33 0.35 0.34 0.38 0.43 0.51 0.50 0.60 0.76 0.86 0.91 0.92 0.93 0.87 0.69 0.61 0.54 0.47 0.45 0.45 0.46 0.49 0.59 0.76
0.15 0.13 0.23 0.44 0.55 0.62 0.61 0.56 0.48 0.45 0.41 0.30 0.27 0.21 0.21 0.28 0.31 0.35 0.34 0.29 0.27 0.27 0.30 0.35 0.44 0.48 0.50 0.58 0.69 0.70 0.74 0.75 0.77 0.73 0.58 0.52 0.41 0.37 0.40 0.41 0.44 0.45 0.52 0.65
0.22 0.19 0.41 0.64 0.53 0.47 0.51 0.41 0.26 0.23 0.24 0.23 0.19 0.15 0.12 0.13 0.16 0.17 0.21 0.22 0.27 0.25 0.24 0.27 0.35 0.45 0.56 0.58 0.57 0.56 0.59 0.61 0.58 0.57 0.52 0.45 0.36 0.33 0.35 0.38 0.43 0.45 0.48 0.53
0.33 0.32 0.47 0.58 0.39 0.36 0.42 0.38 0.20 0.15 0.14 0.12 0.12 0.09 0.07 0.07 0.10 0.11 0.11 0.14 0.18 0.18 0.17 0.18 0.20 0.23 0.28 0.30 0.31 0.32 0.41 0.48 0.51 0.50 0.45 0.40 0.35 0.40 0.44 0.44 0.44 0.42 0.42 0.44
0.40 0.46 0.57 0.41 0.17 0.16 0.29 0.43 0.18 0.10 0.09 0.08 0.08 0.09 0.07 0.08 0.10 0.09 0.08 0.07 0.10 0.13 0.12 0.12 0.12 0.13 0.13 0.15 0.19 0.22 0.28 0.34 0.40 0.44 0.45 0.47 0.55 0.62 0.61 0.56 0.50 0.44 0.40 0.39
0.46 0.64 0.64 0.36 0.15 0.17 0.31 0.44 0.23 0.10 0.06 0.06 0.07 0.07 0.07 0.09 0.09 0.08 0.07 0.06 0.07 0.09 0.10 0.10 0.10 0.09 0.10 0.11 0.11 0.11 0.14 0.19 0.29 0.43 0.49 0.55 0.65 0.66 0.64 0.57 0.47 0.42 0.39 0.37
0.57 0.74 0.81 0.41 0.21 0.25 0.23 0.16 0.12 0.07 0.05 0.05 0.05 0.06 0.07 0.07 0.07 0.06 0.07 0.06 0.06 0.07 0.08 0.10 0.11 0.09 0.09 0.14 0.12 0.10 0.12 0.17 0.24 0.33 0.43 0.57 0.65 0.62 0.60 0.58 0.51 0.46 0.46 0.42
0.57 0.62 0.52 0.32 0.21 0.15 0.10 0.10 0.05 0.04 0.03 0.03 0.03 0.05 0.06 0.08 0.07 0.06 0.06 0.06 0.07 0.07 0.08 0.08 0.09 0.09 0.09 0.10 0.11 0.10 0.11 0.12 0.14 0.21 0.33 0.48 0.54 0.55 0.56 0.56 0.54 0.49 0.45 0.42
0.24 0.18 0.17 0.14 0.12 0.07 0.04 0.05 0.02 0.01 0.01 0.02 0.03 0.03 0.05 0.06 0.06 0.06 0.06 0.05 0.05 0.06 0.06 0.07 0.07 0.08 0.10 0.11 0.10 0.09 0.10 0.11 0.10 0.10 0.12 0.19 0.26 0.34 0.40 0.44 0.44 0.42 0.41 0.43
0.23 0.12 0.07 0.06 0.06 0.04 0.03 0.03 0.01 0.01 0.01 0.01 0.02 0.02 0.03 0.05 0.05 0.06 0.06 0.06 0.05 0.06 0.07 0.06 0.07 0.07 0.09 0.10 0.10 0.10 0.10 0.09 0.09 0.11 0.13 0.12 0.14 0.18 0.22 0.25 0.32 0.38 0.39 0.40
0.21 0.14 0.08 0.05 0.04 0.03 0.03 0.02 0.01 0.01 0.01 0.00 0.01 0.02 0.02 0.03 0.04 0.04 0.05 0.05 0.06 0.07 0.08 0.07 0.07 0.08 0.08 0.08 0.09 0.10 0.11 0.10 0.08 0.08 0.10 0.11 0.12 0.13 0.15 0.15 0.18 0.20 0.22 0.23
0.10 0.09 0.07 0.06 0.06 0.03 0.03 0.01 0.01 0.01 0.01 0.00 0.01 0.01 0.02 0.02 0.03 0.03 0.04 0.04 0.05 0.06 0.07 0.07 0.08 0.08 0.09 0.10 0.09 0.10 0.11 0.11 0.09 0.07 0.08 0.10 0.12 0.15 0.16 0.14 0.10 0.08 0.10 0.13
0.05 0.07 0.07 0.05 0.03 0.02 0.01 0.01 0.01 0.01 0.00 0.00 0.01 0.01 0.01 0.02 0.03 0.03 0.04 0.04 0.04 0.05 0.07 0.06 0.06 0.06 0.09 0.10 0.10 0.10 0.11 0.14 0.13 0.14 0.15 0.13 0.14 0.18 0.21 0.22 0.17 0.10 0.08 0.10
0.04 0.05 0.06 0.05 0.02 0.01 0.01 0.01 0.01 0.01 0.01 0.00 0.01 0.01 0.01 0.02 0.03 0.03 0.04 0.04 0.04 0.05 0.06 0.06 0.05 0.06 0.08 0.09 0.10 0.11 0.11 0.11 0.13 0.17 0.17 0.17 0.20 0.23 0.22 0.20 0.18 0.13 0.10 0.07
0.04 0.04 0.04 0.03 0.02 0.01 0.01 0.01 0.01 0.02 0.02 0.02 0.02 0.01 0.01 0.02 0.03 0.04 0.04 0.05 0.05 0.05 0.06 0.07 0.07 0.08 0.08 0.09 0.09 0.10 0.11 0.12 0.12 0.14 0.16 0.18 0.19 0.20 0.18 0.17 0.14 0.12 0.10 0.09
0.03 0.03 0.02 0.02 0.02 0.02 0.01 0.02 0.02 0.03 0.03 0.03 0.03 0.02 0.02 0.02 0.03 0.03 0.04 0.05 0.06 0.05 0.05 0.07 0.09 0.09 0.08 0.07 0.08 0.09 0.10 0.11 0.11 0.11 0.11 0.12 0.13 0.14 0.15 0.13 0.12 0.10 0.08 0.08
0.03 0.03 0.02 0.02 0.02 0.03 0.03 0.03 0.03 0.03 0.04 0.04 0.05 0.04 0.04 0.04 0.04 0.04 0.05 0.05 0.05 0.04 0.04 0.05 0.08 0.09 0.08 0.07 0.07 0.09 0.10 0.10 0.09 0.09 0.11 0.12 0.11 0.12 0.13 0.15 0.15 0.13 0.11 0.10
0.04 0.03 0.03 0.03 0.03 0.04 0.05 0.04 0.04 0.04 0.04 0.05 0.05 0.05 0.05 0.05 0.05 0.05 0.05 0.05 0.04 0.04 0.03 0.04 0.07 0.07 0.07 0.07 0.07 0.08 0.09 0.10 0.10 0.10 0.11 0.11 0.12 0.13 0.13 0.14 0.15 0.16 0.17 0.16
0.06 0.06 0.05 0.05 0.05 0.05 0.05 0.05 0.04 0.03 0.03 0.04 0.05 0.05 0.05 0.05 0.05 0.05 0.05 0.05 0.05 0.05 0.05 0.05 0.05 0.04 0.05 0.08 0.09 0.08 0.08 0.09 0.11 0.12 0.12 0.13 0.14 0.14 0.14 0.13 0.14 0.15 0.16 0.17
0.09 0.09 0.08 0.07 0.07 0.07 0.06 0.05 0.05 0.04 0.04 0.04 0.05 0.05 0.05 0.04 0.04 0.04 0.04 0.05 0.05 0.05 0.05 0.06 0.05 0.06 0.06 0.09 0.10 0.09 0.08 0.08 0.11 0.13 0.13 0.15 0.17 0.18 0.19 0.18 0.17 0.17 0.17 0.17
0.11 0.11 0.09 0.08 0.07 0.07 0.07 0.07 0.07 0.06 0.06 0.06 0.05 0.05 0.05 0.05 0.05 0.05 0.05 0.07 0.07 0.07 0.07 0.07 0.08 0.09 0.10 0.12 0.11 0.10 0.11 0.10 0.11 0.13 0.14 0.16 0.19 0.22 0.23 0.22 0.21 0.19 0.19 0.21
0.09 0.10 0.10 0.09 0.08 0.08 0.08 0.08 0.09 0.08 0.08 0.08 0.08 0.08 0.08 0.08 0.09 0.10 0.10 0.10 0.11 0.12 0.11 0.11 0.12 0.13 0.15 0.13 0.12 0.12 0.12 0.13 0.14 0.16 0.17 0.19 0.20 0.24 0.27 0.27 0.26 0.26 0.25 0.26
0.11 0.10 0.10 0.10 0.10 0.10 0.12 0.13 0.12 0.12 0.12 0.12 0.12 0.12 0.13 0.13 0.14 0.14 0.15 0.16 0.16 0.14 0.12 0.12 0.13 0.14 0.14 0.12 0.15 0.17 0.16 0.17 0.19 0.20 0.23 0.25 0.25 0.27 0.30 0.31 0.32 0.32 0.33 0.33
0.14 0.13 0.13 0.15 0.17 0.17 0.18 0.17 0.15 0.13 0.12 0.12 0.12 0.12 0.13 0.14 0.15 0.17 0.17 0.17 0.17 0.16 0.14 0.15 0.17 0.18 0.16 0.15 0.18 0.20 0.22 0.22 0.24 0.26 0.26 0.27 0.28 0.29 0.31 0.33 0.35 0.37 0.38 0.38
0.12 0.11 0.13 0.16 0.18 0.18 0.17 0.15 0.15 0.14 0.13 0.13 0.13 0.14 0.14 0.14 0.16 0.17 0.18 0.18 0.17 0.18 0.16 0.15 0.15 0.15 0.16 0.17 0.19 0.21 0.23 0.25 0.25 0.25 0.27 0.30 0.32 0.33 0.35 0.38 0.39 0.41 0.43 0.43
0.12 0.12 0.12 0.15 0.18 0.17 0.15 0.14 0.15 0.15 0.16 0.18 0.20 0.20 0.20 0.19 0.20 0.19 0.19 0.18 0.19 0.19 0.19 0.19 0.19 0.18 0.20 0.22 0.22 0.23 0.24 0.26 0.26 0.28 0.31 0.34 0.37 0.40 0.41 0.42 0.43 0.46 0.49 0.51

GEFSNGP_prec_meanprecacc_216.txt.gz
Total_Precipitation_Accumulation
0.28 0.26 0.31 0.38 0.40 0.48 0.62 0.80 1.03 0.92 0.71 0.59 0.58 0.54 0.56 0.62 0.55 0.51 0.48 0.47 0.47 0.44 0.46 0.49 0.53 0.61 0.68 0.79 0.96 1.08 1.14 1.10 1.01 0.94 0.83 0.74 0.66 0.58 0.58 0.53 0.53 0.60 0.77 0.93
0.15 0.17 0.22 0.32 0.44 0.57 0.63 0.70 0.72 0.63 0.59 0.45 0.40 0.36 0.38 0.44 0.43 0.42 0.38 0.33 0.33 0.35 0.35 0.39 0.45 0.53 0.53 0.62 0.79 0.90 0.96 0.97 0.99 0.94 0.77 0.68 0.59 0.51 0.48 0.47 0.48 0.51 0.60 0.76
0.16 0.14 0.24 0.45 0.55 0.62 0.61 0.57 0.48 0.45 0.41 0.30 0.27 0.21 0.22 0.28 0.31 0.35 0.34 0.29 0.27 0.27 0.30 0.36 0.45 0.49 0.53 0.62 0.72 0.75 0.79 0.80 0.82 0.80 0.65 0.58 0.47 0.42 0.43 0.44 0.46 0.46 0.53 0.66
0.24 0.21 0.43 0.65 0.53 0.47 0.51 0.41 0.26 0.23 0.24 0.23 0.19 0.15 0.12 0.13 0.16 0.18 0.21 0.22 0.27 0.25 0.24 0.28 0.36 0.46 0.57 0.60 0.60 0.60 0.64 0.65 0.63 0.62 0.58 0.50 0.41 0.38 0.39 0.42 0.46 0.46 0.49 0.54
0.35 0.35 0.49 0.58 0.39 0.36 0.42 0.38 0.20 0.15 0.14 0.12 0.12 0.09 0.07 0.07 0.10 0.11 0.11 0.14 0.18 0.18 0.17 0.18 0.21 0.24 0.29 0.32 0.33 0.35 0.44 0.51 0.55 0.55 0.51 0.45 0.40 0.45 0.50 0.48 0.47 0.45 0.43 0.45
0.42 0.50 0.60 0.43 0.18 0.17 0.30 0.44 0.18 0.10 0.09 0.08 0.08 0.10 0.08 0.08 0.10 0.09 0.08 0.07 0.10 0.13 0.12 0.12 0.13 0.14 0.15 0.17 0.20 0.23 0.29 0.35 0.42 0.47 0.49 0.51 0.59 0.67 0.67 0.63 0.56 0.49 0.44 0.41
0.49 0.67 0.65 0.38 0.17 0.18 0.32 0.45 0.23 0.10 0.06 0.06 0.07 0.08 0.07 0.09 0.09 0.08 0.07 0.06 0.07 0.09 0.10 0.11 0.11 0.10 0.12 0.13 0.13 0.13 0.14 0.20 0.31 0.45 0.52 0.59 0.68 0.70 0.67 0.61 0.54 0.49 0.46 0.42
0.60 0.78 0.83 0.42 0.23 0.27 0.24 0.16 0.13 0.07 0.05 0.05 0.05 0.06 0.07 0.07 0.07 0.06 0.07 0.06 0.07 0.07 0.08 0.10 0.11 0.09 0.09 0.15 0.14 0.13 0.14 0.18 0.26 0.36 0.48 0.61 0.68 0.64 0.62 0.61 0.55 0.50 0.51 0.47
0.61 0.65 0.54 0.33 0.22 0.16 0.11 0.10 0.05 0.04 0.03 0.03 0.03 0.05 0.06 0.08 0.07 0.06 0.06 0.06 0.07 0.08 0.08 0.09 0.09 0.09 0.09 0.11 0.13 0.13 0.14 0.14 0.16 0.24 0.37 0.53 0.58 0.59 0.60 0.61 0.58 0.53 0.49 0.47
0.25 0.19 0.17 0.15 0.12 0.07 0.04 0.05 0.02 0.01 0.02 0.02 0.03 0.03 0.05 0.06 0.06 0.06 0.06 0.05 0.05 0.06 0.07 0.07 0.08 0.09 0.11 0.12 0.11 0.11 0.13 0.14 0.12 0.12 0.16 0.23 0.30 0.38 0.44 0.48 0.48 0.46 0.45 0.46
0.24 0.12 0.08 0.07 0.06 0.04 0.03 0.03 0.01 0.01 0.01 0.01 0.02 0.03 0.03 0.05 0.05 0.06 0.06 0.06 0.05 0.06 0.07 0.06 0.07 0.07 0.10 0.11 0.11 0.11 0.12 0.12 0.12 0.13 0.15 0.15 0.17 0.22 0.26 0.28 0.35 0.41 0.42 0.43
0.22 0.15 0.09 0.06 0.04 0.03 0.03 0.02 0.01 0.01 0.01 0.00 0.01 0.02 0.03 0.03 0.04 0.04 0.05 0.05 0.06 0.07 0.08 0.07 0.08 0.08 0.08 0.09 0.10 0.11 0.12 0.11 0.09 0.10 0.12 0.13 0.14 0.16 0.18 0.18 0.22 0.25 0.27 0.27
0.10 0.10 0.08 0.07 0.06 0.04 0.03 0.02 0.01 0.01 0.01 0.00 0.01 0.01 0.02 0.02 0.03 0.03 0.04 0.04 0.05 0.06 0.07 0.08 0.08 0.08 0.09 0.10 0.10 0.10 0.11 0.12 0.10 0.08 0.10 0.12 0.13 0.16 0.18 0.16 0.13 0.11 0.14 0.18
0.05 0.07 0.08 0.06 0.04 0.02 0.02 0.01 0.01 0.01 0.01 0.01 0.01 0.01 0.01 0.02 0.03 0.04 0.04 0.04 0.05 0.05 0.07 0.07 0.06 0.07 0.09 0.10 0.11 0.11 0.12 0.14 0.14 0.15 0.16 0.14 0.15 0.19 0.22 0.23 0.19 0.12 0.10 0.12
0.05 0.06 0.07 0.05 0.02 0.01 0.01 0.01 0.01 0.01 0.01 0.01 0.01 0.01 0.01 0.02 0.03 0.03 0.04 0.04 0.05 0.05 0.06 0.06 0.06 0.06 0.08 0.10 0.11 0.12 0.12 0.12 0.14 0.18 0.19 0.19 0.21 0.24 0.23 0.22 0.19 0.15 0.11 0.09
0.04 0.04 0.04 0.03 0.02 0.01 0.01 0.01 0.02 0.02 0.02 0.02 0.02 0.02 0.02 0.02 0.03 0.04 0.04 0.05 0.06 0.06 0.07 0.09 0.08 0.09 0.10 0.11 0.11 0.13 0.14 0.15 0.14 0.15 0.17 0.20 0.21 0.21 0.19 0.18 0.15 0.13 0.11 0.11
0.03 0.03 0.02 0.02 0.02 0.02 0.02 0.02 0.02 0.03 0.03 0.03 0.03 0.03 0.02 0.02 0.03 0.04 0.04 0.05 0.06 0.07 0.07 0.10 0.12 0.12 0.11 0.10 0.10 0.11 0.13 0.14 0.14 0.13 0.13 0.14 0.14 0.15 0.16 0.14 0.13 0.11 0.09 0.09
0.03 0.03 0.02 0.02 0.02 0.03 0.04 0.03 0.03 0.03 0.04 0.04 0.05 0.04 0.04 0.04 0.04 0.04 0.06 0.06 0.06 0.05 0.06 0.07 0.11 0.12 0.10 0.10 0.10 0.11 0.12 0.12 0.11 0.11 0.13 0.13 0.12 0.13 0.14 0.16 0.16 0.14 0.12 0.11
0.05 0.04 0.03 0.03 0.03 0.04 0.05 0.05 0.04 0.04 0.04 0.05 0.05 0.05 0.05 0.05 0.06 0.05 0.06 0.06 0.05 0.05 0.05 0.06 0.09 0.11 0.10 0.09 0.10 0.10 0.11 0.12 0.12 0.12 0.12 0.12 0.13 0.14 0.14 0.15 0.16 0.17 0.18 0.17
0.07 0.06 0.06 0.05 0.05 0.05 0.05 0.05 0.05 0.04 0.03 0.04 0.05 0.05 0.06 0.06 0.06 0.05 0.05 0.06 0.06 0.06 0.06 0.06 0.07 0.07 0.09 0.10 0.11 0.10 0.10 0.10 0.13 0.15 0.15 0.15 0.16 0.16 0.15 0.15 0.16 0.17 0.17 0.18
0.11 0.10 0.08 0.08 0.08 0.07 0.06 0.06 0.05 0.04 0.04 0.04 0.05 0.06 0.06 0.05 0.05 0.06 0.06 0.07 0.06 0.06 0.06 0.06 0.06 0.07 0.09 0.12 0.12 0.10 0.10 0.10 0.13 0.15 0.16 0.17 0.19 0.20 0.21 0.19 0.17 0.17 0.17 0.18
0.12 0.11 0.10 0.08 0.08 0.08 0.08 0.07 0.07 0.06 0.06 0.06 0.06 0.06 0.07 0.07 0.07 0.08 0.08 0.10 0.09 0.09 0.08 0.08 0.08 0.10 0.13 0.14 0.12 0.12 0.12 0.12 0.13 0.15 0.16 0.17 0.20 0.23 0.24 0.23 0.22 0.20 0.20 0.22
0.11 0.11 0.11 0.10 0.09 0.08 0.08 0.09 0.09 0.09 0.09 0.09 0.08 0.09 0.09 0.10 0.10 0.12 0.13 0.12 0.13 0.14 0.13 0.12 0.13 0.15 0.17 0.15 0.14 0.14 0.14 0.15 0.16 0.17 0.19 0.20 0.21 0.25 0.28 0.28 0.28 0.27 0.26 0.27
0.13 0.11 0.10 0.11 0.11 0.11 0.12 0.13 0.12 0.12 0.12 0.13 0.12 0.13 0.13 0.14 0.15 0.15 0.17 0.17 0.16 0.15 0.12 0.13 0.15 0.16 0.16 0.14 0.16 0.18 0.18 0.18 0.20 0.22 0.24 0.27 0.26 0.28 0.31 0.32 0.33 0.34 0.34 0.34
0.15 0.14 0.14 0.16 0.17 0.18 0.19 0.18 0.15 0.14 0.13 0.14 0.13 0.13 0.13 0.15 0.16 0.18 0.18 0.18 0.18 0.16 0.15 0.16 0.18 0.19 0.17 0.16 0.19 0.21 0.23 0.23 0.25 0.27 0.27 0.28 0.29 0.30 0.32 0.34 0.36 0.38 0.39 0.39
0.12 0.12 0.13 0.16 0.19 0.18 0.18 0.16 0.16 0.15 0.14 0.14 0.15 0.15 0.15 0.15 0.17 0.18 0.19 0.20 0.19 0.19 0.17 0.16 0.16 0.16 0.16 0.18 0.20 0.22 0.24 0.26 0.26 0.26 0.28 0.31 0.33 0.34 0.36 0.38 0.40 0.42 0.44 0.45
0.12 0.13 0.13 0.16 0.19 0.17 0.15 0.15 0.16 0.17 0.17 0.19 0.21 0.21 0.21 0.21 0.21 0.21 0.20 0.21 0.22 0.21 0.20 0.20 0.20 0.19 0.21 0.22 0.23 0.24 0.25 0.26 0.27 0.29 0.32 0.34 0.38 0.41 0.42 0.42 0.44 0.47 0.50 0.52

GEFSNGP_prec_meanprecacc_222.txt.gz
Total_Precipitation_Accumulation
0.28 0.27 0.32 0.39 0.40 0.50 0.64 0.81 1.04 0.93 0.72 0.60 0.59 0.55 0.57 0.63 0.56 0.52 0.50 0.48 0.47 0.45 0.47 0.51 0.54 0.63 0.69 0.80 0.97 1.08 1.15 1.11 1.02 0.95 0.86 0.78 0.70 0.61 0.62 0.55 0.54 0.62 0.79 0.95
0.15 0.17 0.22 0.32 0.45 0.58 0.65 0.71 0.73 0.64 0.60 0.46 0.41 0.37 0.38 0.45 0.45 0.44 0.39 0.34 0.34 0.36 0.37 0.42 0.47 0.55 0.54 0.64 0.80 0.91 0.97 0.99 1.02 0.98 0.81 0.72 0.63 0.54 0.50 0.49 0.50 0.53 0.63 0.79
0.16 0.14 0.25 0.46 0.56 0.62 0.62 0.57 0.49 0.46 0.42 0.31 0.27 0.21 0.22 0.29 0.32 0.36 0.35 0.30 0.28 0.28 0.31 0.37 0.46 0.51 0.54 0.63 0.73 0.76 0.80 0.82 0.86 0.85 0.70 0.64 0.53 0.45 0.45 0.45 0.48 0.49 0.56 0.69
0.25 0.22 0.44 0.65 0.53 0.47 0.52 0.42 0.28 0.25 0.25 0.24 0.19 0.15 0.12 0.14 0.16 0.18 0.22 0.23 0.28 0.26 0.25 0.28 0.36 0.47 0.59 0.62 0.61 0.62 0.66 0.68 0.66 0.66 0.62 0.54 0.44 0.41 0.41 0.43 0.47 0.48 0.50 0.56
0.37 0.36 0.49 0.59 0.40 0.37 0.44 0.40 0.22 0.16 0.16 0.13 0.12 0.10 0.07 0.08 0.11 0.12 0.12 0.15 0.19 0.19 0.18 0.19 0.22 0.25 0.30 0.33 0.34 0.35 0.45 0.53 0.57 0.58 0.54 0.49 0.43 0.48 0.51 0.50 0.49 0.46 0.45 0.47
0.45 0.52 0.61 0.44 0.18 0.18 0.31 0.47 0.20 0.11 0.10 0.08 0.09 0.10 0.08 0.08 0.11 0.10 0.08 0.08 0.11 0.14 0.13 0.13 0.14 0.15 0.16 0.18 0.21 0.23 0.29 0.36 0.43 0.49 0.52 0.53 0.63 0.69 0.69 0.64 0.57 0.49 0.45 0.43
0.51 0.71 0.68 0.39 0.17 0.19 0.35 0.50 0.26 0.11 0.07 0.07 0.08 0.08 0.08 0.09 0.10 0.09 0.07 0.06 0.07 0.10 0.11 0.12 0.12 0.11 0.13 0.14 0.14 0.14 0.15 0.21 0.31 0.46 0.53 0.61 0.72 0.75 0.71 0.63 0.55 0.51 0.47 0.43
0.65 0.84 0.86 0.44 0.25 0.29 0.27 0.18 0.15 0.08 0.06 0.06 0.06 0.07 0.07 0.08 0.07 0.08 0.08 0.06 0.07 0.07 0.08 0.11 0.12 0.10 0.10 0.16 0.15 0.14 0.15 0.19 0.27 0.38 0.49 0.62 0.70 0.67 0.67 0.66 0.59 0.53 0.52 0.49
0.69 0.70 0.56 0.34 0.24 0.18 0.12 0.11 0.06 0.05 0.04 0.03 0.04 0.05 0.07 0.08 0.07 0.06 0.07 0.06 0.07 0.08 0.08 0.09 0.10 0.10 0.10 0.12 0.15 0.14 0.15 0.14 0.17 0.25 0.38 0.55 0.61 0.62 0.62 0.64 0.62 0.58 0.53 0.50
0.29 0.20 0.18 0.16 0.14 0.10 0.06 0.06 0.03 0.02 0.02 0.02 0.03 0.04 0.05 0.06 0.06 0.06 0.07 0.06 0.05 0.07 0.07 0.08 0.09 0.10 0.12 0.14 0.14 0.13 0.14 0.15 0.14 0.14 0.17 0.25 0.33 0.40 0.47 0.52 0.53 0.53 0.51 0.51
0.25 0.13 0.09 0.08 0.07 0.06 0.05 0.04 0.02 0.01 0.01 0.02 0.02 0.03 0.03 0.06 0.05 0.06 0.07 0.06 0.05 0.06 0.07 0.07 0.08 0.08 0.10 0.13 0.14 0.14 0.14 0.14 0.14 0.16 0.17 0.18 0.19 0.24 0.29 0.32 0.39 0.45 0.44 0.46
0.23 0.15 0.09 0.07 0.05 0.05 0.04 0.03 0.02 0.01 0.01 0.01 0.02 0.03 0.03 0.03 0.04 0.05 0.05 0.06 0.06 0.07 0.08 0.08 0.08 0.09 0.08 0.09 0.11 0.13 0.14 0.13 0.12 0.12 0.14 0.15 0.16 0.18 0.21 0.22 0.27 0.29 0.30 0.29
0.11 0.10 0.08 0.07 0.07 0.05 0.04 0.02 0.02 0.02 0.01 0.01 0.01 0.02 0.03 0.03 0.03 0.04 0.04 0.04 0.06 0.07 0.08 0.08 0.09 0.09 0.10 0.10 0.10 0.12 0.13 0.13 0.11 0.10 0.12 0.14 0.15 0.18 0.20 0.19 0.16 0.15 0.17 0.20
0.05 0.07 0.08 0.07 0.04 0.03 0.03 0.02 0.02 0.01 0.01 0.01 0.02 0.02 0.02 0.03 0.03 0.04 0.04 0.04 0.05 0.06 0.08 0.08 0.07 0.07 0.10 0.11 0.11 0.12 0.13 0.16 0.15 0.15 0.17 0.15 0.16 0.21 0.24 0.25 0.20 0.13 0.12 0.14
0.05 0.06 0.07 0.06 0.03 0.02 0.03 0.02 0.02 0.02 0.01 0.01 0.02 0.02 0.02 0.03 0.04 0.04 0.04 0.05 0.05 0.06 0.07 0.08 0.07 0.07 0.09 0.11 0.12 0.13 0.13 0.14 0.16 0.20 0.20 0.21 0.23 0.26 0.25 0.24 0.21 0.17 0.14 0.13
0.05 0.05 0.05 0.04 0.03 0.02 0.03 0.03 0.03 0.04 0.03 0.03 0.03 0.03 0.02 0.03 0.04 0.05 0.05 0.05 0.06 0.06 0.08 0.10 0.11 0.11 0.11 0.12 0.13 0.14 0.16 0.17 0.17 0.17 0.20 0.23 0.24 0.23 0.22 0.21 0.19 0.16 0.15 0.14
0.04 0.04 0.03 0.03 0.03 0.03 0.04 0.04 0.04 0.05 0.05 0.04 0.05 0.04 0.03 0.03 0.03 0.04 0.05 0.06 0.06 0.07 0.07 0.11 0.14 0.14 0.12 0.11 0.11 0.13 0.15 0.17 0.18 0.16 0.16 0.17 0.17 0.17 0.18 0.16 0.15 0.13 0.11 0.11
0.04 0.04 0.04 0.04 0.03 0.04 0.05 0.05 0.05 0.05 0.05 0.06 0.06 0.06 0.05 0.04 0.04 0.05 0.06 0.06 0.06 0.05 0.06 0.08 0.12 0.14 0.12 0.12 0.12 0.13 0.15 0.15 0.14 0.14 0.16 0.16 0.15 0.16 0.16 0.18 0.17 0.15 0.14 0.12
0.06 0.06 0.05 0.04 0.04 0.05 0.06 0.05 0.05 0.05 0.05 0.06 0.06 0.06 0.06 0.06 0.06 0.06 0.06 0.06 0.05 0.05 0.05 0.07 0.10 0.11 0.11 0.11 0.12 0.12 0.13 0.15 0.15 0.15 0.15 0.16 0.17 0.17 0.17 0.17 0.17 0.18 0.19 0.18
0.09 0.08 0.07 0.06 0.06 0.06 0.06 0.06 0.05 0.05 0.04 0.05 0.05 0.06 0.06 0.06 0.06 0.06 0.06 0.07 0.07 0.07 0.06 0.07 0.07 0.08 0.10 0.11 0.12 0.11 0.11 0.12 0.15 0.18 0.18 0.19 0.20 0.20 0.19 0.17 0.17 0.18 0.18 0.19
0.12 0.11 0.09 0.09 0.08 0.08 0.07 0.06 0.06 0.05 0.05 0.05 0.06 0.06 0.06 0.05 0.05 0.06 0.07 0.07 0.07 0.06 0.06 0.07 0.07 0.08 0.10 0.13 0.14 0.11 0.10 0.11 0.14 0.17 0.18 0.19 0.21 0.23 0.25 0.21 0.19 0.18 0.18 0.18
0.14 0.13 0.11 0.09 0.09 0.09 0.08 0.08 0.08 0.07 0.07 0.07 0.07 0.07 0.07 0.07 0.07 0.08 0.09 0.10 0.10 0.10 0.09 0.09 0.09 0.11 0.14 0.16 0.14 0.13 0.13 0.13 0.14 0.15 0.17 0.19 0.22 0.25 0.28 0.28 0.25 0.21 0.20 0.22
0.13 0.12 0.12 0.11 0.10 0.09 0.09 0.10 0.10 0.10 0.10 0.09 0.09 0.10 0.10 0.10 0.10 0.12 0.13 0.13 0.14 0.15 0.13 0.13 0.14 0.17 0.19 0.17 0.16 0.16 0.16 0.17 0.17 0.18 0.20 0.22 0.23 0.27 0.30 0.31 0.31 0.29 0.27 0.28
0.14 0.12 0.11 0.11 0.11 0.12 0.13 0.14 0.13 0.13 0.13 0.13 0.13 0.13 0.13 0.14 0.15 0.15 0.17 0.18 0.17 0.16 0.13 0.14 0.16 0.17 0.18 0.15 0.18 0.20 0.19 0.20 0.22 0.23 0.25 0.28 0.28 0.30 0.33 0.34 0.35 0.35 0.35 0.35
0.17 0.15 0.15 0.17 0.18 0.19 0.21 0.19 0.17 0.15 0.15 0.14 0.14 0.13 0.14 0.15 0.17 0.18 0.18 0.19 0.19 0.18 0.16 0.17 0.19 0.20 0.18 0.17 0.20 0.22 0.24 0.25 0.27 0.28 0.29 0.30 0.30 0.31 0.33 0.35 0.37 0.39 0.41 0.41
0.15 0.14 0.15 0.17 0.20 0.20 0.19 0.18 0.17 0.17 0.15 0.15 0.15 0.15 0.15 0.16 0.17 0.19 0.20 0.21 0.21 0.21 0.18 0.17 0.17 0.17 0.17 0.19 0.21 0.23 0.25 0.27 0.27 0.27 0.29 0.33 0.34 0.35 0.36 0.39 0.41 0.44 0.46 0.47
0.15 0.15 0.15 0.17 0.20 0.18 0.16 0.16 0.18 0.19 0.19 0.20 0.22 0.22 0.21 0.21 0.21 0.22 0.21 0.23 0.25 0.23 0.22 0.21 0.21 0.20 0.22 0.24 0.24 0.25 0.26 0.27 0.27 0.29 0.32 0.35 0.39 0.41 0.43 0.43 0.45 0.48 0.51 0.53